Time,TemperatureF,DewpointF,PressureIn,WindDirection,WindDirectionDegrees,WindSpeedMPH,WindSpeedGustMPH,Humidity,HourlyPrecipIn,Conditions,Clouds,dailyrainin,SoftwareType,DateUTC
2013-07-23 00:00:00,80.5,75.2,29.93,East,96,1.0,1.0,84,0.00,,,0.00,WeatherCatV1.24B11,2013-07-23 05:00:00,
2013-07-23 00:01:00,80.7,75.4,29.93,SE,137,0.0,5.0,84,0.00,,,0.00,WeatherCatV1.20B785,2013-07-23 05:01:00,
2013-07-23 00:05:00,80.4,75.1,29.93,ESE,120,1.0,5.0,84,0.00,,,0.00,WeatherCatV1.24B11,2013-07-23 05:05:00,
2013-07-23 00:06:00,80.6,75.3,29.93,East,97,0.0,7.0,84,0.00,,,0.00,WeatherCatV1.20B785,2013-07-23 05:06:00,
2013-07-23 00:10:00,80.3,75.0,29.93,ESE,123,1.0,0.0,84,0.00,,,0.00,WeatherCatV1.24B11,2013-07-23 05:10:00,
2013-07-23 00:11:00,80.5,75.2,29.93,East,96,0.0,3.0,84,0.00,,,0.00,WeatherCatV1.20B785,2013-07-23 05:11:00,
2013-07-23 00:15:00,80.3,75.0,29.93,SE,126,1.0,4.0,84,0.00,,,0.00,WeatherCatV1.24B11,2013-07-23 05:15:00,
2013-07-23 00:16:00,80.4,75.1,29.93,SE,126,0.0,7.0,84,0.00,,,0.00,WeatherCatV1.20B785,2013-07-23 05:16:00,
2013-07-23 00:20:00,80.2,75.3,29.93,SE,126,1.0,4.0,85,0.00,,,0.00,WeatherCatV1.24B11,2013-07-23 05:20:00,
2013-07-23 00:21:00,80.3,75.0,29.93,SE,132,0.0,1.0,84,0.00,,,0.00,WeatherCatV1.20B785,2013-07-23 05:21:00,
2013-07-23 00:25:00,80.1,75.2,29.93,SE,128,1.0,0.0,85,0.00,,,0.00,WeatherCatV1.24B11,2013-07-23 05:25:00,
2013-07-23 00:26:00,80.3,75.0,29.93,SE,140,0.0,4.0,84,0.00,,,0.00,WeatherCatV1.20B785,2013-07-23 05:26:00,
2013-07-23 00:30:00,80.1,75.2,29.93,ESE,119,0.0,5.0,85,0.00,,,0.00,WeatherCatV1.24B11,2013-07-23 05:30:00,
2013-07-23 00:31:00,80.2,75.3,29.93,SE,138,1.0,7.0,85,0.00,,,0.00,WeatherCatV1.20B785,2013-07-23 05:31:00,
2013-07-23 00:35:00,80.0,75.1,29.93,ESE,121,0.0,7.0,85,0.00,,,0.00,WeatherCatV1.24B11,2013-07-23 05:35:00,
2013-07-23 00:36:00,80.2,75.3,29.93,SE,130,0.0,1.0,85,0.00,,,0.00,WeatherCatV1.20B785,2013-07-23 05:36:00,
2013-07-23 00:40:00,79.9,75.0,29.93,ESE,119,0.0,7.0,85,0.00,,,0.00,WeatherCatV1.24B11,2013-07-23 05:40:00,
2013-07-23 00:41:00,80.1,75.2,29.93,ESE,117,0.0,5.0,85,0.00,,,0.00,WeatherCatV1.20B785,2013-07-23 05:41:00,
2013-07-23 00:45:00,79.9,75.3,29.93,ESE,111,1.0,5.0,86,0.00,,,0.00,WeatherCatV1.24B11,2013-07-23 05:45:00,
2013-07-23 00:46:00,80.0,75.1,29.93,ESE,114,0.0,1.0,85,0.00,,,0.00,WeatherCatV1.20B785,2013-07-23 05:46:00,
2013-07-23 00:50:00,79.8,75.2,29.93,ESE,118,1.0,7.0,86,0.00,,,0.00,WeatherCatV1.24B11,2013-07-23 05:50:00,
2013-07-23 00:51:00,80.0,75.1,29.93,East,90,0.0,7.0,85,0.00,,,0.00,WeatherCatV1.20B785,2013-07-23 05:51:00,
2013-07-23 00:55:00,79.8,75.2,29.93,ESE,116,2.0,9.0,86,0.00,,,0.00,WeatherCatV1.24B11,2013-07-23 05:55:00,
2013-07-23 00:56:00,79.9,75.3,29.93,ESE,107,0.0,5.0,86,0.00,,,0.00,WeatherCatV1.20B785,2013-07-23 05:56:00,
2013-07-23 01:00:00,79.8,75.2,29.93,ESE,122,2.0,5.0,86,0.00,,,0.00,WeatherCatV1.24B11,2013-07-23 06:00:00,
2013-07-23 01:01:00,79.8,75.2,29.93,ESE,104,3.0,9.0,86,0.00,,,0.00,WeatherCatV1.20B785,2013-07-23 06:01:00,
2013-07-23 01:05:00,79.8,75.2,29.93,ESE,119,2.0,8.0,86,0.00,,,0.00,WeatherCatV1.24B11,2013-07-23 06:05:00,
2013-07-23 01:06:00,79.8,75.2,29.93,SE,128,3.0,10.0,86,0.00,,,0.00,WeatherCatV1.20B785,2013-07-23 06:06:00,
2013-07-23 01:10:00,79.8,75.2,29.93,SE,132,2.0,4.0,86,0.00,,,0.00,WeatherCatV1.24B11,2013-07-23 06:10:00,
2013-07-23 01:11:00,79.8,75.2,29.93,ESE,117,3.0,5.0,86,0.00,,,0.00,WeatherCatV1.20B785,2013-07-23 06:11:00,
2013-07-23 01:15:00,79.7,75.1,29.93,SE,140,2.0,7.0,86,0.00,,,0.00,WeatherCatV1.24B11,2013-07-23 06:15:00,
2013-07-23 01:16:00,79.8,75.2,29.93,ESE,103,5.0,8.0,86,0.00,,,0.00,WeatherCatV1.20B785,2013-07-23 06:16:00,
2013-07-23 01:20:00,79.7,75.5,29.93,SE,130,1.0,7.0,87,0.00,,,0.00,WeatherCatV1.24B11,2013-07-23 06:20:00,
2013-07-23 01:21:00,79.7,75.1,29.93,SE,140,0.0,4.0,86,0.00,,,0.00,WeatherCatV1.20B785,2013-07-23 06:21:00,
2013-07-23 01:25:00,79.7,75.5,29.93,SE,134,1.0,3.0,87,0.00,,,0.00,WeatherCatV1.24B11,2013-07-23 06:25:00,
2013-07-23 01:26:00,79.7,75.1,29.93,ESE,105,2.0,7.0,86,0.00,,,0.00,WeatherCatV1.20B785,2013-07-23 06:26:00,
2013-07-23 01:30:00,79.6,75.4,29.93,SE,136,1.0,7.0,87,0.00,,,0.00,WeatherCatV1.24B11,2013-07-23 06:30:00,
2013-07-23 01:31:00,79.7,75.5,29.93,SE,146,0.0,7.0,87,0.00,,,0.00,WeatherCatV1.20B785,2013-07-23 06:31:00,
2013-07-23 01:35:00,79.6,75.4,29.92,SE,143,2.0,4.0,87,0.00,,,0.00,WeatherCatV1.24B11,2013-07-23 06:35:00,
2013-07-23 01:36:00,79.7,75.5,29.93,ESE,117,1.0,3.0,87,0.00,,,0.00,WeatherCatV1.20B785,2013-07-23 06:36:00,
2013-07-23 01:40:00,79.5,75.3,29.92,SE,133,1.0,1.0,87,0.00,,,0.00,WeatherCatV1.24B11,2013-07-23 06:40:00,
2013-07-23 01:41:00,79.6,75.4,29.93,SSE,158,4.0,7.0,87,0.00,,,0.00,WeatherCatV1.20B785,2013-07-23 06:41:00,
2013-07-23 01:45:00,79.4,75.2,29.93,SE,126,1.0,7.0,87,0.00,,,0.00,WeatherCatV1.24B11,2013-07-23 06:45:00,
2013-07-23 01:46:00,79.6,75.4,29.92,SSE,153,0.0,4.0,87,0.00,,,0.00,WeatherCatV1.20B785,2013-07-23 06:46:00,
2013-07-23 01:50:00,79.4,75.2,29.93,SE,130,1.0,6.0,87,0.00,,,0.00,WeatherCatV1.24B11,2013-07-23 06:50:00,
2013-07-23 01:51:00,79.5,75.3,29.92,SE,134,0.0,1.0,87,0.00,,,0.00,WeatherCatV1.20B785,2013-07-23 06:51:00,
2013-07-23 01:55:00,79.4,75.2,29.93,SE,139,1.0,5.0,87,0.00,,,0.00,WeatherCatV1.24B11,2013-07-23 06:55:00,
2013-07-23 01:56:00,79.5,75.3,29.93,SE,132,0.0,7.0,87,0.00,,,0.00,WeatherCatV1.20B785,2013-07-23 06:56:00,
2013-07-23 02:00:00,79.3,75.1,29.93,SE,144,1.0,3.0,87,0.00,,,0.00,WeatherCatV1.24B11,2013-07-23 07:00:00,
2013-07-23 02:01:00,79.4,75.2,29.93,SSW,198,0.0,6.0,87,0.00,,,0.00,WeatherCatV1.20B785,2013-07-23 07:01:00,
2013-07-23 02:05:00,79.3,75.1,29.93,SE,132,1.0,7.0,87,0.00,,,0.00,WeatherCatV1.24B11,2013-07-23 07:05:00,
2013-07-23 02:06:00,79.4,75.2,29.93,SE,132,0.0,5.0,87,0.00,,,0.00,WeatherCatV1.20B785,2013-07-23 07:06:00,
2013-07-23 02:10:00,79.3,75.1,29.93,SE,145,2.0,7.0,87,0.00,,,0.00,WeatherCatV1.24B11,2013-07-23 07:10:00,
2013-07-23 02:11:00,79.3,75.1,29.93,SE,133,3.0,3.0,87,0.00,,,0.00,WeatherCatV1.20B785,2013-07-23 07:11:00,
2013-07-23 02:15:00,79.3,75.1,29.92,SE,138,2.0,4.0,87,0.00,,,0.00,WeatherCatV1.24B11,2013-07-23 07:15:00,
2013-07-23 02:16:00,79.3,75.1,29.93,SE,125,2.0,7.0,87,0.00,,,0.00,WeatherCatV1.20B785,2013-07-23 07:16:00,
2013-07-23 02:20:00,79.3,75.1,29.92,SE,142,1.0,9.0,87,0.00,,,0.00,WeatherCatV1.24B11,2013-07-23 07:20:00,
2013-07-23 02:21:00,79.3,75.1,29.93,East,95,0.0,7.0,87,0.00,,,0.00,WeatherCatV1.20B785,2013-07-23 07:21:00,
2013-07-23 02:25:00,79.3,75.1,29.92,SE,132,1.0,0.0,87,0.00,,,0.00,WeatherCatV1.24B11,2013-07-23 07:25:00,
2013-07-23 02:26:00,79.3,75.1,29.92,SE,146,0.0,10.0,87,0.00,,,0.00,WeatherCatV1.20B785,2013-07-23 07:26:00,
2013-07-23 02:30:00,79.3,75.1,29.92,SE,134,1.0,6.0,87,0.00,,,0.00,WeatherCatV1.24B11,2013-07-23 07:30:00,
2013-07-23 02:31:00,79.3,75.1,29.92,SE,131,0.0,1.0,87,0.00,,,0.00,WeatherCatV1.20B785,2013-07-23 07:31:00,
2013-07-23 02:35:00,79.3,75.1,29.92,SE,135,2.0,8.0,87,0.00,,,0.00,WeatherCatV1.24B11,2013-07-23 07:35:00,
2013-07-23 02:36:00,79.3,75.1,29.92,ESE,107,0.0,5.0,87,0.00,,,0.00,WeatherCatV1.20B785,2013-07-23 07:36:00,
2013-07-23 02:40:00,79.3,75.1,29.92,SE,145,2.0,7.0,87,0.00,,,0.00,WeatherCatV1.24B11,2013-07-23 07:40:00,
2013-07-23 02:41:00,79.3,75.1,29.92,SE,140,4.0,6.0,87,0.00,,,0.00,WeatherCatV1.20B785,2013-07-23 07:41:00,
2013-07-23 02:45:00,79.3,75.1,29.92,SE,137,1.0,4.0,87,0.00,,,0.00,WeatherCatV1.24B11,2013-07-23 07:45:00,
2013-07-23 02:46:00,79.3,75.1,29.92,SE,133,0.0,8.0,87,0.00,,,0.00,WeatherCatV1.20B785,2013-07-23 07:46:00,
2013-07-23 02:50:00,79.3,75.1,29.92,SE,125,1.0,3.0,87,0.00,,,0.00,WeatherCatV1.24B11,2013-07-23 07:50:00,
2013-07-23 02:51:00,79.3,75.1,29.92,ESE,115,4.0,9.0,87,0.00,,,0.00,WeatherCatV1.20B785,2013-07-23 07:51:00,
2013-07-23 02:55:00,79.2,75.0,29.92,SE,134,1.0,2.0,87,0.00,,,0.00,WeatherCatV1.24B11,2013-07-23 07:55:00,
2013-07-23 02:56:00,79.3,75.1,29.92,SE,138,2.0,10.0,87,0.00,,,0.00,WeatherCatV1.20B785,2013-07-23 07:56:00,
2013-07-23 03:00:00,79.2,75.0,29.92,ESE,123,1.0,6.0,87,0.00,,,0.00,WeatherCatV1.24B11,2013-07-23 08:00:00,
2013-07-23 03:01:00,79.2,75.0,29.92,SE,136,0.0,1.0,87,0.00,,,0.00,WeatherCatV1.20B785,2013-07-23 08:01:00,
2013-07-23 03:05:00,79.2,75.0,29.92,ESE,117,2.0,7.0,87,0.00,,,0.00,WeatherCatV1.24B11,2013-07-23 08:05:00,
2013-07-23 03:06:00,79.2,75.0,29.92,SE,126,0.0,2.0,87,0.00,,,0.00,WeatherCatV1.20B785,2013-07-23 08:06:00,
2013-07-23 03:10:00,79.2,75.0,29.92,ESE,121,2.0,7.0,87,0.00,,,0.00,WeatherCatV1.24B11,2013-07-23 08:10:00,
2013-07-23 03:11:00,79.2,75.0,29.92,East,87,0.0,6.0,87,0.00,,,0.00,WeatherCatV1.20B785,2013-07-23 08:11:00,
2013-07-23 03:15:00,79.1,74.9,29.92,ESE,123,2.0,5.0,87,0.00,,,0.00,WeatherCatV1.24B11,2013-07-23 08:15:00,
2013-07-23 03:16:00,79.2,75.0,29.92,ESE,117,7.0,7.0,87,0.00,,,0.00,WeatherCatV1.20B785,2013-07-23 08:16:00,
2013-07-23 03:20:00,79.1,74.9,29.92,SE,135,1.0,5.0,87,0.00,,,0.00,WeatherCatV1.24B11,2013-07-23 08:20:00,
2013-07-23 03:21:00,79.1,74.9,29.92,ESE,119,0.0,5.0,87,0.00,,,0.00,WeatherCatV1.20B785,2013-07-23 08:21:00,
2013-07-23 03:25:00,79.0,74.8,29.92,SE,124,1.0,2.0,87,0.00,,,0.00,WeatherCatV1.24B11,2013-07-23 08:25:00,
2013-07-23 03:26:00,79.1,74.9,29.92,SSE,163,0.0,3.0,87,0.00,,,0.00,WeatherCatV1.20B785,2013-07-23 08:26:00,
2013-07-23 03:30:00,79.0,74.8,29.92,SE,129,1.0,4.0,87,0.00,,,0.00,WeatherCatV1.24B11,2013-07-23 08:30:00,
2013-07-23 03:31:00,79.1,74.9,29.92,SE,134,0.0,5.0,87,0.00,,,0.00,WeatherCatV1.20B785,2013-07-23 08:31:00,
2013-07-23 03:35:00,78.9,74.7,29.92,SE,141,1.0,3.0,87,0.00,,,0.00,WeatherCatV1.24B11,2013-07-23 08:35:00,
2013-07-23 03:36:00,79.0,74.8,29.92,ESE,117,0.0,1.0,87,0.00,,,0.00,WeatherCatV1.20B785,2013-07-23 08:36:00,
2013-07-23 03:40:00,78.9,74.7,29.92,SE,143,1.0,3.0,87,0.00,,,0.00,WeatherCatV1.24B11,2013-07-23 08:40:00,
2013-07-23 03:41:00,79.0,74.8,29.92,South,175,2.0,6.0,87,0.00,,,0.00,WeatherCatV1.20B785,2013-07-23 08:41:00,
2013-07-23 03:45:00,78.8,74.6,29.92,SE,141,1.0,4.0,87,0.00,,,0.00,WeatherCatV1.24B11,2013-07-23 08:45:00,
2013-07-23 03:46:00,78.9,74.7,29.92,SE,125,0.0,4.0,87,0.00,,,0.00,WeatherCatV1.20B785,2013-07-23 08:46:00,
2013-07-23 03:50:00,78.7,74.5,29.92,ESE,117,1.0,0.0,87,0.00,,,0.00,WeatherCatV1.24B11,2013-07-23 08:50:00,
2013-07-23 03:51:00,78.9,74.7,29.92,SE,145,0.0,2.0,87,0.00,,,0.00,WeatherCatV1.20B785,2013-07-23 08:51:00,
2013-07-23 03:55:00,78.7,74.5,29.92,ESE,121,1.0,4.0,87,0.00,,,0.00,WeatherCatV1.24B11,2013-07-23 08:55:00,
2013-07-23 03:56:00,78.8,74.6,29.92,SE,130,0.0,4.0,87,0.00,,,0.00,WeatherCatV1.20B785,2013-07-23 08:56:00,
2013-07-23 04:00:00,78.7,74.5,29.92,SE,126,1.0,3.0,87,0.00,,,0.00,WeatherCatV1.24B11,2013-07-23 09:00:00,
2013-07-23 04:01:00,78.7,74.5,29.92,East,96,0.0,0.0,87,0.00,,,0.00,WeatherCatV1.20B785,2013-07-23 09:01:00,
2013-07-23 04:05:00,78.7,74.5,29.92,SE,128,1.0,2.0,87,0.00,,,0.00,WeatherCatV1.24B11,2013-07-23 09:05:00,
2013-07-23 04:06:00,78.7,74.5,29.92,SE,129,4.0,8.0,87,0.00,,,0.00,WeatherCatV1.20B785,2013-07-23 09:06:00,
2013-07-23 04:10:00,78.5,74.3,29.92,SE,145,1.0,2.0,87,0.00,,,0.00,WeatherCatV1.24B11,2013-07-23 09:10:00,
2013-07-23 04:11:00,78.7,74.5,29.92,SE,128,0.0,3.0,87,0.00,,,0.00,WeatherCatV1.20B785,2013-07-23 09:11:00,
2013-07-23 04:15:00,78.4,74.2,29.92,SSE,157,0.0,5.0,87,0.00,,,0.00,WeatherCatV1.24B11,2013-07-23 09:15:00,
2013-07-23 04:16:00,78.7,74.5,29.92,ESE,123,0.0,1.0,87,0.00,,,0.00,WeatherCatV1.20B785,2013-07-23 09:16:00,
2013-07-23 04:20:00,78.4,74.2,29.92,SSE,149,0.0,0.0,87,0.00,,,0.00,WeatherCatV1.24B11,2013-07-23 09:20:00,
2013-07-23 04:21:00,78.5,74.3,29.92,SSE,165,0.0,2.0,87,0.00,,,0.00,WeatherCatV1.20B785,2013-07-23 09:21:00,
2013-07-23 04:25:00,78.3,74.1,29.92,SE,139,0.0,0.0,87,0.00,,,0.00,WeatherCatV1.24B11,2013-07-23 09:25:00,
2013-07-23 04:26:00,78.4,74.2,29.92,SSE,150,4.0,4.0,87,0.00,,,0.00,WeatherCatV1.20B785,2013-07-23 09:26:00,
2013-07-23 04:30:00,78.2,74.0,29.92,SE,142,0.0,3.0,87,0.00,,,0.00,WeatherCatV1.24B11,2013-07-23 09:30:00,
2013-07-23 04:31:00,78.4,74.2,29.92,SE,144,0.0,1.0,87,0.00,,,0.00,WeatherCatV1.20B785,2013-07-23 09:31:00,
2013-07-23 04:35:00,78.2,74.0,29.92,SE,136,0.0,1.0,87,0.00,,,0.00,WeatherCatV1.24B11,2013-07-23 09:35:00,
2013-07-23 04:36:00,78.3,74.1,29.92,SSE,155,0.0,4.0,87,0.00,,,0.00,WeatherCatV1.20B785,2013-07-23 09:36:00,
2013-07-23 04:40:00,78.1,73.9,29.92,SE,135,0.0,0.0,87,0.00,,,0.00,WeatherCatV1.24B11,2013-07-23 09:40:00,
2013-07-23 04:41:00,78.2,74.0,29.92,SE,133,0.0,3.0,87,0.00,,,0.00,WeatherCatV1.20B785,2013-07-23 09:41:00,
2013-07-23 04:45:00,78.1,73.9,29.93,SE,125,1.0,2.0,87,0.00,,,0.00,WeatherCatV1.24B11,2013-07-23 09:45:00,
2013-07-23 04:46:00,78.2,74.0,29.92,SSE,149,0.0,3.0,87,0.00,,,0.00,WeatherCatV1.20B785,2013-07-23 09:46:00,
2013-07-23 04:50:00,78.1,73.9,29.92,SE,136,1.0,5.0,87,0.00,,,0.00,WeatherCatV1.24B11,2013-07-23 09:50:00,
2013-07-23 04:51:00,78.1,73.9,29.92,ESE,117,0.0,2.0,87,0.00,,,0.00,WeatherCatV1.20B785,2013-07-23 09:51:00,
2013-07-23 04:55:00,78.1,73.9,29.92,SE,134,1.0,1.0,87,0.00,,,0.00,WeatherCatV1.24B11,2013-07-23 09:55:00,
2013-07-23 04:56:00,78.1,73.9,29.93,ESE,122,0.0,5.0,87,0.00,,,0.00,WeatherCatV1.20B785,2013-07-23 09:56:00,
2013-07-23 05:00:00,78.1,73.9,29.93,SE,141,0.0,4.0,87,0.00,,,0.00,WeatherCatV1.24B11,2013-07-23 10:00:00,
2013-07-23 05:01:00,78.1,73.9,29.92,SSE,159,0.0,2.0,87,0.00,,,0.00,WeatherCatV1.20B785,2013-07-23 10:01:00,
2013-07-23 05:05:00,78.1,73.9,29.93,SSE,158,0.0,2.0,87,0.00,,,0.00,WeatherCatV1.24B11,2013-07-23 10:05:00,
2013-07-23 05:06:00,78.1,73.9,29.93,East,95,0.0,2.0,87,0.00,,,0.00,WeatherCatV1.20B785,2013-07-23 10:06:00,
2013-07-23 05:10:00,78.0,73.8,29.93,SE,139,0.0,2.0,87,0.00,,,0.00,WeatherCatV1.24B11,2013-07-23 10:10:00,
2013-07-23 05:11:00,78.1,73.9,29.93,South,171,0.0,3.0,87,0.00,,,0.00,WeatherCatV1.20B785,2013-07-23 10:11:00,
2013-07-23 05:15:00,78.1,73.9,29.93,SE,127,1.0,6.0,87,0.00,,,0.00,WeatherCatV1.24B11,2013-07-23 10:15:00,
2013-07-23 05:16:00,78.1,73.9,29.93,SSE,155,0.0,0.0,87,0.00,,,0.00,WeatherCatV1.20B785,2013-07-23 10:16:00,
2013-07-23 05:20:00,78.0,73.8,29.93,SE,138,1.0,5.0,87,0.00,,,0.00,WeatherCatV1.24B11,2013-07-23 10:20:00,
2013-07-23 05:21:00,78.0,73.8,29.93,ESE,109,0.0,4.0,87,0.00,,,0.00,WeatherCatV1.20B785,2013-07-23 10:21:00,
2013-07-23 05:25:00,78.0,73.8,29.93,SE,138,1.0,1.0,87,0.00,,,0.00,WeatherCatV1.24B11,2013-07-23 10:25:00,
2013-07-23 05:26:00,78.1,73.9,29.93,South,182,3.0,6.0,87,0.00,,,0.00,WeatherCatV1.20B785,2013-07-23 10:26:00,
2013-07-23 05:30:00,78.0,73.8,29.93,SE,142,0.0,3.0,87,0.00,,,0.00,WeatherCatV1.24B11,2013-07-23 10:30:00,
2013-07-23 05:31:00,78.0,73.8,29.93,SE,134,0.0,5.0,87,0.00,,,0.00,WeatherCatV1.20B785,2013-07-23 10:31:00,
2013-07-23 05:35:00,78.0,73.8,29.93,SE,140,1.0,7.0,87,0.00,,,0.00,WeatherCatV1.24B11,2013-07-23 10:35:00,
2013-07-23 05:36:00,78.0,73.8,29.93,SE,140,0.0,1.0,87,0.00,,,0.00,WeatherCatV1.20B785,2013-07-23 10:36:00,
2013-07-23 05:40:00,78.0,73.8,29.93,SE,129,1.0,1.0,87,0.00,,,0.00,WeatherCatV1.24B11,2013-07-23 10:40:00,
2013-07-23 05:41:00,78.0,73.8,29.93,SE,142,0.0,6.0,87,0.00,,,0.00,WeatherCatV1.20B785,2013-07-23 10:41:00,
2013-07-23 05:45:00,77.9,73.7,29.93,SE,124,1.0,4.0,87,0.00,,,0.00,WeatherCatV1.24B11,2013-07-23 10:45:00,
2013-07-23 05:46:00,78.0,73.8,29.93,ESE,117,3.0,7.0,87,0.00,,,0.00,WeatherCatV1.20B785,2013-07-23 10:46:00,
2013-07-23 05:50:00,77.9,73.7,29.94,SE,128,0.0,0.0,87,0.00,,,0.00,WeatherCatV1.24B11,2013-07-23 10:50:00,
2013-07-23 05:51:00,78.0,73.8,29.93,ESE,111,0.0,6.0,87,0.00,,,0.00,WeatherCatV1.20B785,2013-07-23 10:51:00,
2013-07-23 05:55:00,77.9,73.4,29.94,SE,145,0.0,0.0,86,0.00,,,0.00,WeatherCatV1.24B11,2013-07-23 10:55:00,
2013-07-23 05:56:00,77.9,73.7,29.93,SE,128,4.0,4.0,87,0.00,,,0.00,WeatherCatV1.20B785,2013-07-23 10:56:00,
2013-07-23 06:00:00,77.8,73.3,29.94,SSE,157,0.0,0.0,86,0.00,,,0.00,WeatherCatV1.24B11,2013-07-23 11:00:00,
2013-07-23 06:01:00,77.9,73.7,29.94,SE,134,1.0,1.0,87,0.00,,,0.00,WeatherCatV1.20B785,2013-07-23 11:01:00,
2013-07-23 06:05:00,77.8,73.3,29.94,SSE,149,0.0,3.0,86,0.00,,,0.00,WeatherCatV1.24B11,2013-07-23 11:05:00,
2013-07-23 06:06:00,77.9,73.4,29.94,SSE,165,0.0,3.0,86,0.00,,,0.00,WeatherCatV1.20B785,2013-07-23 11:06:00,
2013-07-23 06:10:00,77.7,73.2,29.94,SSE,156,1.0,1.0,86,0.00,,,0.00,WeatherCatV1.24B11,2013-07-23 11:10:00,
2013-07-23 06:11:00,77.8,73.3,29.94,SE,140,0.0,3.0,86,0.00,,,0.00,WeatherCatV1.20B785,2013-07-23 11:11:00,
2013-07-23 06:15:00,77.7,73.5,29.94,SSE,157,0.0,3.0,87,0.00,,,0.00,WeatherCatV1.24B11,2013-07-23 11:15:00,
2013-07-23 06:16:00,77.8,73.3,29.94,SSE,155,0.0,4.0,86,0.00,,,0.00,WeatherCatV1.20B785,2013-07-23 11:16:00,
2013-07-23 06:20:00,77.7,73.2,29.94,SSE,152,1.0,5.0,86,0.00,,,0.00,WeatherCatV1.24B11,2013-07-23 11:20:00,
2013-07-23 06:21:00,77.7,73.2,29.94,SSE,158,0.0,3.0,86,0.00,,,0.00,WeatherCatV1.20B785,2013-07-23 11:21:00,
2013-07-23 06:25:00,77.6,73.1,29.94,SSE,153,1.0,7.0,86,0.00,,,0.00,WeatherCatV1.24B11,2013-07-23 11:25:00,
2013-07-23 06:26:00,77.7,73.5,29.94,ESE,119,0.0,3.0,87,0.00,,,0.00,WeatherCatV1.20B785,2013-07-23 11:26:00,
2013-07-23 06:30:00,77.6,73.1,29.94,SSE,159,1.0,3.0,86,0.00,,,0.00,WeatherCatV1.24B11,2013-07-23 11:30:00,
2013-07-23 06:31:00,77.6,73.1,29.94,SE,133,0.0,7.0,86,0.00,,,0.00,WeatherCatV1.20B785,2013-07-23 11:31:00,
2013-07-23 06:35:00,77.5,73.0,29.94,SE,143,1.0,6.0,86,0.00,,,0.00,WeatherCatV1.24B11,2013-07-23 11:35:00,
2013-07-23 06:36:00,77.6,73.1,29.94,SE,137,0.0,7.0,86,0.00,,,0.00,WeatherCatV1.20B785,2013-07-23 11:36:00,
2013-07-23 06:40:00,77.4,72.9,29.94,SSE,150,1.0,0.0,86,0.00,,,0.00,WeatherCatV1.24B11,2013-07-23 11:40:00,
2013-07-23 06:41:00,77.6,73.1,29.94,SSE,155,0.0,0.0,86,0.00,,,0.00,WeatherCatV1.20B785,2013-07-23 11:41:00,
2013-07-23 06:45:00,77.3,72.8,29.94,SSE,167,1.0,6.0,86,0.00,,,0.00,WeatherCatV1.24B11,2013-07-23 11:45:00,
2013-07-23 06:46:00,77.5,73.0,29.94,South,187,1.0,6.0,86,0.00,,,0.00,WeatherCatV1.20B785,2013-07-23 11:46:00,
2013-07-23 06:50:00,77.3,72.8,29.94,SE,143,1.0,3.0,86,0.00,,,0.00,WeatherCatV1.24B11,2013-07-23 11:50:00,
2013-07-23 06:51:00,77.4,72.9,29.94,SE,134,0.0,0.0,86,0.00,,,0.00,WeatherCatV1.20B785,2013-07-23 11:51:00,
2013-07-23 06:55:00,77.2,72.7,29.94,SE,137,1.0,4.0,86,0.00,,,0.00,WeatherCatV1.24B11,2013-07-23 11:55:00,
2013-07-23 06:56:00,77.3,72.8,29.94,SW,222,1.0,2.0,86,0.00,,,0.00,WeatherCatV1.20B785,2013-07-23 11:56:00,
2013-07-23 07:00:00,77.2,72.7,29.94,SE,144,1.0,6.0,86,0.00,,,0.00,WeatherCatV1.24B11,2013-07-23 12:00:00,
2013-07-23 07:01:00,77.2,72.7,29.94,SE,140,0.0,3.0,86,0.00,,,0.00,WeatherCatV1.20B785,2013-07-23 12:01:00,
2013-07-23 07:05:00,77.1,72.6,29.94,SSE,159,0.0,1.0,86,0.00,,,0.00,WeatherCatV1.24B11,2013-07-23 12:05:00,
2013-07-23 07:06:00,77.2,72.7,29.94,ESE,107,0.0,4.0,86,0.00,,,0.00,WeatherCatV1.20B785,2013-07-23 12:06:00,
2013-07-23 07:10:00,77.1,72.6,29.94,SE,144,0.0,4.0,86,0.00,,,0.00,WeatherCatV1.24B11,2013-07-23 12:10:00,
2013-07-23 07:11:00,77.2,72.7,29.94,South,183,0.0,6.0,86,0.00,,,0.00,WeatherCatV1.20B785,2013-07-23 12:11:00,
2013-07-23 07:15:00,77.2,72.7,29.95,SE,137,0.0,3.0,86,0.00,,,0.00,WeatherCatV1.24B11,2013-07-23 12:15:00,
2013-07-23 07:16:00,77.1,72.6,29.94,SSE,147,0.0,1.0,86,0.00,,,0.00,WeatherCatV1.20B785,2013-07-23 12:16:00,
2013-07-23 07:20:00,77.3,72.8,29.95,SE,140,1.0,1.0,86,0.00,,,0.00,WeatherCatV1.24B11,2013-07-23 12:20:00,
2013-07-23 07:21:00,77.1,72.6,29.94,ESE,119,0.0,4.0,86,0.00,,,0.00,WeatherCatV1.20B785,2013-07-23 12:21:00,
2013-07-23 07:25:00,77.4,72.9,29.95,SE,126,1.0,0.0,86,0.00,,,0.00,WeatherCatV1.24B11,2013-07-23 12:25:00,
2013-07-23 07:26:00,77.2,72.7,29.95,SSE,165,0.0,3.0,86,0.00,,,0.00,WeatherCatV1.20B785,2013-07-23 12:26:00,
2013-07-23 07:30:00,77.4,72.9,29.95,SE,135,0.0,2.0,86,0.00,,,0.00,WeatherCatV1.24B11,2013-07-23 12:30:00,
2013-07-23 07:31:00,77.3,72.8,29.95,SE,137,1.0,1.0,86,0.00,,,0.00,WeatherCatV1.20B785,2013-07-23 12:31:00,
2013-07-23 07:35:00,77.5,73.0,29.95,SSE,165,0.0,2.0,86,0.00,,,0.00,WeatherCatV1.24B11,2013-07-23 12:35:00,
2013-07-23 07:36:00,77.4,72.9,29.95,ESE,106,0.0,0.0,86,0.00,,,0.00,WeatherCatV1.20B785,2013-07-23 12:36:00,
2013-07-23 07:40:00,77.6,73.1,29.95,SSE,153,0.0,1.0,86,0.00,,,0.00,WeatherCatV1.24B11,2013-07-23 12:40:00,
2013-07-23 07:41:00,77.4,72.9,29.95,SE,140,0.0,0.0,86,0.00,,,0.00,WeatherCatV1.20B785,2013-07-23 12:41:00,
2013-07-23 07:45:00,77.7,73.2,29.95,SSE,149,0.0,1.0,86,0.00,,,0.00,WeatherCatV1.24B11,2013-07-23 12:45:00,
2013-07-23 07:46:00,77.5,73.0,29.95,South,182,0.0,2.0,86,0.00,,,0.00,WeatherCatV1.20B785,2013-07-23 12:46:00,
2013-07-23 07:50:00,77.9,73.4,29.95,SE,128,0.0,0.0,86,0.00,,,0.00,WeatherCatV1.24B11,2013-07-23 12:50:00,
2013-07-23 07:51:00,77.6,73.1,29.95,ESE,119,0.0,2.0,86,0.00,,,0.00,WeatherCatV1.20B785,2013-07-23 12:51:00,
2013-07-23 07:55:00,78.0,73.1,29.95,SSE,154,0.0,4.0,85,0.00,,,0.00,WeatherCatV1.24B11,2013-07-23 12:55:00,
2013-07-23 07:56:00,77.8,73.3,29.96,SE,145,0.0,0.0,86,0.00,,,0.00,WeatherCatV1.20B785,2013-07-23 12:56:00,
2013-07-23 08:00:00,78.1,72.9,29.95,SSE,147,1.0,7.0,84,0.00,,,0.00,WeatherCatV1.24B11,2013-07-23 13:00:00,
2013-07-23 08:01:00,77.9,73.4,29.95,SSW,192,2.0,6.0,86,0.00,,,0.00,WeatherCatV1.20B785,2013-07-23 13:01:00,
2013-07-23 08:05:00,78.3,73.1,29.96,SSE,164,1.0,6.0,84,0.00,,,0.00,WeatherCatV1.24B11,2013-07-23 13:05:00,
2013-07-23 08:06:00,78.0,73.1,29.95,South,191,0.0,7.0,85,0.00,,,0.00,WeatherCatV1.20B785,2013-07-23 13:06:00,
2013-07-23 08:10:00,78.4,73.2,29.96,SSE,151,1.0,5.0,84,0.00,,,0.00,WeatherCatV1.24B11,2013-07-23 13:10:00,
2013-07-23 08:11:00,78.2,72.9,29.96,East,100,0.0,7.0,84,0.00,,,0.00,WeatherCatV1.20B785,2013-07-23 13:11:00,
2013-07-23 08:15:00,78.6,73.3,29.96,SSE,154,1.0,3.0,84,0.00,,,0.00,WeatherCatV1.24B11,2013-07-23 13:15:00,
2013-07-23 08:16:00,78.4,73.2,29.96,South,179,1.0,7.0,84,0.00,,,0.00,WeatherCatV1.20B785,2013-07-23 13:16:00,
2013-07-23 08:20:00,78.7,73.1,29.96,SSE,158,1.0,6.0,83,0.00,,,0.00,WeatherCatV1.24B11,2013-07-23 13:20:00,
2013-07-23 08:21:00,78.5,73.2,29.96,SSE,148,2.0,5.0,84,0.00,,,0.00,WeatherCatV1.20B785,2013-07-23 13:21:00,
2013-07-23 08:25:00,78.7,73.1,29.96,SSE,148,1.0,2.0,83,0.00,,,0.00,WeatherCatV1.24B11,2013-07-23 13:25:00,
2013-07-23 08:26:00,78.7,73.1,29.96,SSE,147,3.0,6.0,83,0.00,,,0.00,WeatherCatV1.20B785,2013-07-23 13:26:00,
2013-07-23 08:30:00,79.1,73.5,29.97,SSE,156,1.0,6.0,83,0.00,,,0.00,WeatherCatV1.24B11,2013-07-23 13:30:00,
2013-07-23 08:31:00,78.7,73.1,29.96,ESE,123,3.0,5.0,83,0.00,,,0.00,WeatherCatV1.20B785,2013-07-23 13:31:00,
2013-07-23 08:35:00,79.5,73.5,29.97,SE,146,1.0,11.0,82,0.00,,,0.00,WeatherCatV1.24B11,2013-07-23 13:35:00,
2013-07-23 08:36:00,78.7,73.1,29.96,SE,141,4.0,4.0,83,0.00,,,0.00,WeatherCatV1.20B785,2013-07-23 13:36:00,
2013-07-23 08:40:00,79.8,73.4,29.97,SSE,162,2.0,5.0,81,0.00,,,0.00,WeatherCatV1.24B11,2013-07-23 13:40:00,
2013-07-23 08:41:00,79.2,73.6,29.97,East,98,0.0,6.0,83,0.00,,,0.00,WeatherCatV1.20B785,2013-07-23 13:41:00,
2013-07-23 08:45:00,80.2,73.4,29.97,SSE,159,2.0,11.0,80,0.00,,,0.00,WeatherCatV1.24B11,2013-07-23 13:45:00,
2013-07-23 08:46:00,79.5,73.5,29.97,ESE,121,0.0,11.0,82,0.00,,,0.00,WeatherCatV1.20B785,2013-07-23 13:46:00,
2013-07-23 08:50:00,80.5,73.4,29.97,SSE,148,2.0,8.0,79,0.00,,,0.00,WeatherCatV1.24B11,2013-07-23 13:50:00,
2013-07-23 08:51:00,79.8,73.4,29.97,South,173,0.0,6.0,81,0.00,,,0.00,WeatherCatV1.20B785,2013-07-23 13:51:00,
2013-07-23 08:55:00,80.4,72.9,29.97,SSE,160,2.0,6.0,78,0.00,,,0.00,WeatherCatV1.24B11,2013-07-23 13:55:00,
2013-07-23 08:56:00,80.2,73.4,29.97,South,186,7.0,11.0,80,0.00,,,0.00,WeatherCatV1.20B785,2013-07-23 13:56:00,
2013-07-23 09:00:00,80.7,73.2,29.97,South,169,2.0,5.0,78,0.00,,,0.00,WeatherCatV1.24B11,2013-07-23 14:00:00,
2013-07-23 09:01:00,80.5,73.4,29.97,South,175,5.0,8.0,79,0.00,,,0.00,WeatherCatV1.20B785,2013-07-23 14:01:00,
2013-07-23 09:05:00,81.1,73.6,29.97,SSE,152,2.0,11.0,78,0.00,,,0.00,WeatherCatV1.24B11,2013-07-23 14:05:00,
2013-07-23 09:06:00,80.5,73.0,29.97,South,181,4.0,10.0,78,0.00,,,0.00,WeatherCatV1.20B785,2013-07-23 14:06:00,
2013-07-23 09:10:00,81.6,73.3,29.97,SE,134,3.0,10.0,76,0.00,,,0.00,WeatherCatV1.24B11,2013-07-23 14:10:00,
2013-07-23 09:11:00,80.7,73.2,29.97,SSE,150,1.0,6.0,78,0.00,,,0.00,WeatherCatV1.20B785,2013-07-23 14:11:00,
2013-07-23 09:15:00,82.1,73.8,29.97,SE,136,3.0,7.0,76,0.00,,,0.00,WeatherCatV1.24B11,2013-07-23 14:15:00,
2013-07-23 09:16:00,81.1,73.6,29.97,South,187,2.0,6.0,78,0.00,,,0.00,WeatherCatV1.20B785,2013-07-23 14:16:00,
2013-07-23 09:20:00,82.8,74.1,29.97,SE,129,2.0,4.0,75,0.00,,,0.00,WeatherCatV1.24B11,2013-07-23 14:20:00,
2013-07-23 09:21:00,81.6,73.3,29.97,SE,146,1.0,10.0,76,0.00,,,0.00,WeatherCatV1.20B785,2013-07-23 14:21:00,
2013-07-23 09:25:00,83.2,74.0,29.97,SE,127,1.0,3.0,74,0.00,,,0.00,WeatherCatV1.24B11,2013-07-23 14:25:00,
2013-07-23 09:26:00,82.2,73.9,29.97,SE,137,0.0,7.0,76,0.00,,,0.00,WeatherCatV1.20B785,2013-07-23 14:26:00,
2013-07-23 09:30:00,83.5,73.9,29.97,SE,129,2.0,7.0,73,0.00,,,0.00,WeatherCatV1.24B11,2013-07-23 14:30:00,
2013-07-23 09:31:00,82.9,73.7,29.97,SE,136,0.0,4.0,74,0.00,,,0.00,WeatherCatV1.20B785,2013-07-23 14:31:00,
2013-07-23 09:35:00,83.7,74.1,29.97,ESE,115,2.0,7.0,73,0.00,,,0.00,WeatherCatV1.24B11,2013-07-23 14:35:00,
2013-07-23 09:36:00,83.3,74.1,29.97,South,184,6.0,7.0,74,0.00,,,0.00,WeatherCatV1.20B785,2013-07-23 14:36:00,
2013-07-23 09:40:00,84.1,74.1,29.97,SSE,158,2.0,10.0,72,0.00,,,0.00,WeatherCatV1.24B11,2013-07-23 14:40:00,
2013-07-23 09:41:00,83.5,73.9,29.97,East,94,2.0,8.0,73,0.00,,,0.00,WeatherCatV1.20B785,2013-07-23 14:41:00,
2013-07-23 09:45:00,84.3,74.3,29.97,SSE,163,1.0,1.0,72,0.00,,,0.00,WeatherCatV1.24B11,2013-07-23 14:45:00,
2013-07-23 09:46:00,83.8,73.8,29.97,SSW,202,0.0,7.0,72,0.00,,,0.00,WeatherCatV1.20B785,2013-07-23 14:46:00,
2013-07-23 09:50:00,85.0,74.5,29.97,SSE,159,1.0,1.0,71,0.00,,,0.00,WeatherCatV1.24B11,2013-07-23 14:50:00,
2013-07-23 09:51:00,84.1,74.1,29.97,SSE,165,0.0,10.0,72,0.00,,,0.00,WeatherCatV1.20B785,2013-07-23 14:51:00,
2013-07-23 09:55:00,85.5,74.1,29.97,SE,135,1.0,1.0,69,0.00,,,0.00,WeatherCatV1.24B11,2013-07-23 14:55:00,
2013-07-23 09:56:00,84.4,74.4,29.97,SSE,159,0.0,1.0,72,0.00,,,0.00,WeatherCatV1.20B785,2013-07-23 14:56:00,
2013-07-23 10:00:00,85.7,74.3,29.97,SE,133,1.0,7.0,69,0.00,,,0.00,WeatherCatV1.24B11,2013-07-23 15:00:00,
2013-07-23 10:01:00,85.1,74.2,29.97,SSE,148,4.0,11.0,70,0.00,,,0.00,WeatherCatV1.20B785,2013-07-23 15:01:00,
2013-07-23 10:05:00,86.0,74.2,29.97,SE,126,1.0,3.0,68,0.00,,,0.00,WeatherCatV1.24B11,2013-07-23 15:05:00,
2013-07-23 10:06:00,85.5,74.1,29.97,ESE,103,0.0,4.0,69,0.00,,,0.00,WeatherCatV1.20B785,2013-07-23 15:06:00,
2013-07-23 10:10:00,86.0,74.2,29.97,ESE,117,2.0,7.0,68,0.00,,,0.00,WeatherCatV1.24B11,2013-07-23 15:10:00,
2013-07-23 10:11:00,85.8,74.0,29.97,ESE,123,0.0,7.0,68,0.00,,,0.00,WeatherCatV1.20B785,2013-07-23 15:11:00,
2013-07-23 10:15:00,86.3,74.0,29.96,SE,132,2.0,5.0,67,0.00,,,0.00,WeatherCatV1.24B11,2013-07-23 15:15:00,
2013-07-23 10:16:00,86.0,74.2,29.97,East,90,1.0,7.0,68,0.00,,,0.00,WeatherCatV1.20B785,2013-07-23 15:16:00,
2013-07-23 10:20:00,86.5,73.8,29.96,SE,131,1.0,5.0,66,0.00,,,0.00,WeatherCatV1.24B11,2013-07-23 15:20:00,
2013-07-23 10:21:00,86.0,74.2,29.97,ESE,117,1.0,7.0,68,0.00,,,0.00,WeatherCatV1.20B785,2013-07-23 15:21:00,
2013-07-23 10:25:00,86.2,73.9,29.97,SE,138,2.0,7.0,67,0.00,,,0.00,WeatherCatV1.24B11,2013-07-23 15:25:00,
2013-07-23 10:26:00,86.3,74.0,29.96,ESE,121,2.0,5.0,67,0.00,,,0.00,WeatherCatV1.20B785,2013-07-23 15:26:00,
2013-07-23 10:30:00,86.2,73.9,29.97,SSE,162,2.0,2.0,67,0.00,,,0.00,WeatherCatV1.24B11,2013-07-23 15:30:00,
2013-07-23 10:31:00,86.5,74.2,29.96,ENE,67,2.0,5.0,67,0.00,,,0.00,WeatherCatV1.20B785,2013-07-23 15:31:00,
2013-07-23 10:35:00,86.9,73.7,29.97,SSE,159,1.0,7.0,65,0.00,,,0.00,WeatherCatV1.24B11,2013-07-23 15:35:00,
2013-07-23 10:36:00,86.2,73.9,29.97,ESE,106,3.0,7.0,67,0.00,,,0.00,WeatherCatV1.20B785,2013-07-23 15:36:00,
2013-07-23 10:40:00,86.9,73.7,29.97,South,174,2.0,5.0,65,0.00,,,0.00,WeatherCatV1.24B11,2013-07-23 15:40:00,
2013-07-23 10:41:00,86.2,73.9,29.97,South,183,0.0,1.0,67,0.00,,,0.00,WeatherCatV1.20B785,2013-07-23 15:41:00,
2013-07-23 10:45:00,87.0,73.8,29.97,SSE,168,2.0,7.0,65,0.00,,,0.00,WeatherCatV1.24B11,2013-07-23 15:45:00,
2013-07-23 10:46:00,86.9,73.7,29.97,South,180,0.0,7.0,65,0.00,,,0.00,WeatherCatV1.20B785,2013-07-23 15:46:00,
2013-07-23 10:50:00,86.8,73.6,29.97,South,169,1.0,6.0,65,0.00,,,0.00,WeatherCatV1.24B11,2013-07-23 15:50:00,
2013-07-23 10:51:00,86.9,73.7,29.97,SSE,164,0.0,10.0,65,0.00,,,0.00,WeatherCatV1.20B785,2013-07-23 15:51:00,
2013-07-23 10:55:00,87.1,73.4,29.97,SSE,168,2.0,7.0,64,0.00,,,0.00,WeatherCatV1.24B11,2013-07-23 15:55:00,
2013-07-23 10:56:00,87.0,73.8,29.97,SSE,161,0.0,7.0,65,0.00,,,0.00,WeatherCatV1.20B785,2013-07-23 15:56:00,
2013-07-23 11:00:00,87.7,74.0,29.96,SSE,151,2.0,7.0,64,0.00,,,0.00,WeatherCatV1.24B11,2013-07-23 16:00:00,
2013-07-23 11:01:00,86.8,73.6,29.97,SE,142,0.0,6.0,65,0.00,,,0.00,WeatherCatV1.20B785,2013-07-23 16:01:00,
2013-07-23 11:05:00,88.2,73.5,29.97,SE,131,2.0,14.0,62,0.00,,,0.00,WeatherCatV1.24B11,2013-07-23 16:05:00,
2013-07-23 11:06:00,87.2,73.5,29.97,ESE,105,5.0,7.0,64,0.00,,,0.00,WeatherCatV1.20B785,2013-07-23 16:06:00,
2013-07-23 11:10:00,87.7,74.0,29.97,SSW,202,5.0,7.0,64,0.00,,,0.00,WeatherCatV1.20B785,2013-07-23 16:10:00,
2013-07-23 11:15:00,88.2,73.5,29.96,East,87,6.0,6.0,62,0.00,,,0.00,WeatherCatV1.20B785,2013-07-23 16:15:00,
2013-07-23 11:20:00,88.4,73.2,29.97,SSE,162,4.0,11.0,61,0.00,,,0.00,WeatherCatV1.20B785,2013-07-23 16:20:00,
2013-07-23 11:25:00,88.5,73.8,29.96,SE,140,0.0,2.0,62,0.00,,,0.00,WeatherCatV1.20B785,2013-07-23 16:25:00,
2013-07-23 11:30:00,89.1,73.4,29.96,ESE,104,4.0,8.0,60,0.00,,,0.00,WeatherCatV1.20B785,2013-07-23 16:30:00,
2013-07-23 11:35:00,89.0,73.3,29.96,SSE,157,0.0,6.0,60,0.00,,,0.00,WeatherCatV1.20B785,2013-07-23 16:35:00,
2013-07-23 11:40:00,89.5,72.7,29.96,SSE,166,0.0,4.0,58,0.00,,,0.00,WeatherCatV1.20B785,2013-07-23 16:40:00,
2013-07-23 11:45:00,89.7,73.4,29.96,SE,126,0.0,7.0,59,0.00,,,0.00,WeatherCatV1.20B785,2013-07-23 16:45:00,
2013-07-23 11:50:00,90.1,73.8,29.96,ESE,121,0.0,6.0,59,0.00,,,0.00,WeatherCatV1.20B785,2013-07-23 16:50:00,
2013-07-23 11:55:00,89.8,73.0,29.96,SSE,163,6.0,9.0,58,0.00,,,0.00,WeatherCatV1.20B785,2013-07-23 16:55:00,
2013-07-23 12:00:00,89.9,72.6,29.95,SE,125,1.0,2.0,57,0.00,,,0.00,WeatherCatV1.20B785,2013-07-23 17:00:00,
2013-07-23 12:05:00,90.6,73.2,29.95,SE,132,0.0,1.0,57,0.00,,,0.00,WeatherCatV1.20B785,2013-07-23 17:05:00,
2013-07-23 12:10:00,90.8,72.9,29.95,South,178,1.0,7.0,56,0.00,,,0.00,WeatherCatV1.20B785,2013-07-23 17:10:00,
2013-07-23 12:15:00,91.5,73.0,29.95,North,0,1.0,10.0,55,0.00,,,0.00,WeatherCatV1.20B785,2013-07-23 17:15:00,
2013-07-23 12:20:00,91.8,72.7,29.95,East,91,7.0,9.0,54,0.00,,,0.00,WeatherCatV1.20B785,2013-07-23 17:20:00,
2013-07-23 12:25:00,92.0,72.9,29.95,South,179,1.0,6.0,54,0.00,,,0.00,WeatherCatV1.20B785,2013-07-23 17:25:00,
2013-07-23 12:30:00,92.0,71.8,29.95,SE,142,5.0,16.0,52,0.00,,,0.00,WeatherCatV1.20B785,2013-07-23 17:30:00,
2013-07-23 12:35:00,92.2,72.0,29.94,SE,128,2.0,7.0,52,0.00,,,0.00,WeatherCatV1.20B785,2013-07-23 17:35:00,
2013-07-23 12:40:00,92.6,72.9,29.94,SE,144,1.0,5.0,53,0.00,,,0.00,WeatherCatV1.20B785,2013-07-23 17:40:00,
2013-07-23 12:45:00,92.8,72.0,29.94,South,173,0.0,7.0,51,0.00,,,0.00,WeatherCatV1.20B785,2013-07-23 17:45:00,
2013-07-23 12:50:00,92.6,71.2,29.94,ESE,106,4.0,10.0,50,0.00,,,0.00,WeatherCatV1.20B785,2013-07-23 17:50:00,
2013-07-23 12:55:00,92.6,71.8,29.94,SSE,150,3.0,6.0,51,0.00,,,0.00,WeatherCatV1.20B785,2013-07-23 17:55:00,
2013-07-23 13:00:00,93.0,72.2,29.94,ESE,122,3.0,4.0,51,0.00,,,0.00,WeatherCatV1.20B785,2013-07-23 18:00:00,
2013-07-23 13:05:00,93.1,71.7,29.94,SE,128,4.0,14.0,50,0.00,,,0.00,WeatherCatV1.20B785,2013-07-23 18:05:00,
2013-07-23 13:10:00,93.5,71.4,29.94,East,100,0.0,4.0,49,0.00,,,0.00,WeatherCatV1.20B785,2013-07-23 18:10:00,
2013-07-23 13:15:00,93.8,71.7,29.94,SSE,150,0.0,2.0,49,0.00,,,0.00,WeatherCatV1.20B785,2013-07-23 18:15:00,
2013-07-23 13:20:00,94.1,72.0,29.93,South,171,3.0,9.0,49,0.00,,,0.00,WeatherCatV1.20B785,2013-07-23 18:20:00,
2013-07-23 13:21:00,94.1,72.0,29.93,South,191,0.0,6.0,49,0.00,,,0.00,WeatherCatV1.20B785,2013-07-23 18:21:00,
2013-07-23 13:25:00,94.8,70.1,29.93,SE,138,2.0,8.0,45,0.00,,,0.00,WeatherCatV1.24B11,2013-07-23 18:25:00,
2013-07-23 13:26:00,93.8,71.1,29.93,ESE,111,9.0,14.0,48,0.00,,,0.00,WeatherCatV1.20B785,2013-07-23 18:26:00,
2013-07-23 13:30:00,94.9,71.5,29.93,SE,138,2.0,11.0,47,0.00,,,0.00,WeatherCatV1.24B11,2013-07-23 18:30:00,
2013-07-23 13:31:00,94.2,70.8,29.93,SSE,150,1.0,7.0,47,0.00,,,0.00,WeatherCatV1.20B785,2013-07-23 18:31:00,
2013-07-23 13:35:00,95.1,71.0,29.93,SE,129,3.0,6.0,46,0.00,,,0.00,WeatherCatV1.24B11,2013-07-23 18:35:00,
2013-07-23 13:36:00,94.8,70.1,29.93,East,81,8.0,8.0,45,0.00,,,0.00,WeatherCatV1.20B785,2013-07-23 18:36:00,
2013-07-23 13:40:00,95.9,71.1,29.92,SE,142,2.0,2.0,45,0.00,,,0.00,WeatherCatV1.24B11,2013-07-23 18:40:00,
2013-07-23 13:41:00,94.9,70.8,29.93,SE,143,1.0,11.0,46,0.00,,,0.00,WeatherCatV1.20B785,2013-07-23 18:41:00,
2013-07-23 13:45:00,96.2,69.3,29.93,SE,141,2.0,9.0,42,0.00,,,0.00,WeatherCatV1.24B11,2013-07-23 18:45:00,
2013-07-23 13:46:00,95.1,71.0,29.93,SE,128,0.0,6.0,46,0.00,,,0.00,WeatherCatV1.20B785,2013-07-23 18:46:00,
2013-07-23 13:50:00,95.6,68.1,29.92,SE,146,3.0,9.0,41,0.00,,,0.00,WeatherCatV1.24B11,2013-07-23 18:50:00,
2013-07-23 13:51:00,96.0,71.2,29.92,East,101,1.0,7.0,45,0.00,,,0.00,WeatherCatV1.20B785,2013-07-23 18:51:00,
2013-07-23 13:55:00,95.5,68.7,29.92,SSE,166,3.0,6.0,42,0.00,,,0.00,WeatherCatV1.24B11,2013-07-23 18:55:00,
2013-07-23 13:56:00,96.1,69.2,29.93,ESE,113,0.0,11.0,42,0.00,,,0.00,WeatherCatV1.20B785,2013-07-23 18:56:00,
2013-07-23 14:00:00,95.1,67.6,29.92,SE,145,3.0,7.0,41,0.00,,,0.00,WeatherCatV1.24B11,2013-07-23 19:00:00,
2013-07-23 14:02:00,95.6,68.1,29.92,South,178,0.0,9.0,41,0.00,,,0.00,WeatherCatV1.20B785,2013-07-23 19:02:00,
2013-07-23 14:05:00,94.9,67.5,29.92,SE,136,3.0,15.0,41,0.00,,,0.00,WeatherCatV1.24B11,2013-07-23 19:05:00,
2013-07-23 14:07:00,95.4,68.6,29.92,South,188,4.0,8.0,42,0.00,,,0.00,WeatherCatV1.20B785,2013-07-23 19:07:00,
2013-07-23 14:10:00,94.9,68.2,29.92,SE,136,3.0,3.0,42,0.00,,,0.00,WeatherCatV1.24B11,2013-07-23 19:10:00,
2013-07-23 14:12:00,95.1,68.3,29.92,SSE,154,1.0,10.0,42,0.00,,,0.00,WeatherCatV1.20B785,2013-07-23 19:12:00,
2013-07-23 14:15:00,95.1,68.3,29.92,SE,130,3.0,8.0,42,0.00,,,0.00,WeatherCatV1.24B11,2013-07-23 19:15:00,
2013-07-23 14:17:00,94.9,68.2,29.92,ESE,121,8.0,15.0,42,0.00,,,0.00,WeatherCatV1.20B785,2013-07-23 19:17:00,
2013-07-23 14:20:00,95.3,68.5,29.91,SSE,147,2.0,5.0,42,0.00,,,0.00,WeatherCatV1.24B11,2013-07-23 19:20:00,
2013-07-23 14:22:00,94.9,68.2,29.92,SE,136,0.0,6.0,42,0.00,,,0.00,WeatherCatV1.20B785,2013-07-23 19:22:00,
2013-07-23 14:25:00,95.8,69.7,29.91,SE,130,2.0,2.0,43,0.00,,,0.00,WeatherCatV1.24B11,2013-07-23 19:25:00,
2013-07-23 14:27:00,95.2,69.1,29.92,SSE,155,3.0,8.0,43,0.00,,,0.00,WeatherCatV1.20B785,2013-07-23 19:27:00,
2013-07-23 14:30:00,96.2,70.0,29.91,ESE,118,3.0,9.0,43,0.00,,,0.00,WeatherCatV1.24B11,2013-07-23 19:30:00,
2013-07-23 14:32:00,95.4,68.6,29.91,SSE,161,3.0,10.0,42,0.00,,,0.00,WeatherCatV1.20B785,2013-07-23 19:32:00,
2013-07-23 14:35:00,96.5,69.6,29.91,SE,128,3.0,5.0,42,0.00,,,0.00,WeatherCatV1.24B11,2013-07-23 19:35:00,
2013-07-23 14:37:00,96.0,69.8,29.91,SE,132,2.0,8.0,43,0.00,,,0.00,WeatherCatV1.20B785,2013-07-23 19:37:00,
2013-07-23 14:40:00,96.5,69.6,29.91,SE,144,3.0,11.0,42,0.00,,,0.00,WeatherCatV1.24B11,2013-07-23 19:40:00,
2013-07-23 14:42:00,96.3,70.1,29.91,South,174,1.0,9.0,43,0.00,,,0.00,WeatherCatV1.20B785,2013-07-23 19:42:00,
2013-07-23 14:45:00,96.7,69.1,29.91,SSE,168,3.0,8.0,41,0.00,,,0.00,WeatherCatV1.24B11,2013-07-23 19:45:00,
2013-07-23 14:47:00,96.5,69.6,29.91,South,183,0.0,8.0,42,0.00,,,0.00,WeatherCatV1.20B785,2013-07-23 19:47:00,
2013-07-23 14:50:00,97.2,69.5,29.90,SE,140,3.0,5.0,41,0.00,,,0.00,WeatherCatV1.24B11,2013-07-23 19:50:00,
2013-07-23 14:52:00,96.6,69.0,29.91,SSE,156,0.0,7.0,41,0.00,,,0.00,WeatherCatV1.20B785,2013-07-23 19:52:00,
2013-07-23 14:55:00,97.6,69.9,29.90,SSE,148,3.0,7.0,41,0.00,,,0.00,WeatherCatV1.24B11,2013-07-23 19:55:00,
2013-07-23 14:57:00,96.7,69.1,29.91,ESE,115,0.0,7.0,41,0.00,,,0.00,WeatherCatV1.20B785,2013-07-23 19:57:00,
2013-07-23 15:00:00,97.9,68.7,29.90,SE,131,3.0,9.0,39,0.00,,,0.00,WeatherCatV1.24B11,2013-07-23 20:00:00,
2013-07-23 15:02:00,97.3,69.6,29.90,SE,125,4.0,8.0,41,0.00,,,0.00,WeatherCatV1.20B785,2013-07-23 20:02:00,
2013-07-23 15:05:00,97.7,69.2,29.90,SE,125,4.0,9.0,40,0.00,,,0.00,WeatherCatV1.24B11,2013-07-23 20:05:00,
2013-07-23 15:07:00,97.7,69.2,29.90,South,178,0.0,7.0,40,0.00,,,0.00,WeatherCatV1.20B785,2013-07-23 20:07:00,
2013-07-23 15:10:00,97.9,69.4,29.89,SE,138,3.0,9.0,40,0.00,,,0.00,WeatherCatV1.24B11,2013-07-23 20:10:00,
2013-07-23 15:12:00,97.8,69.3,29.90,East,94,1.0,9.0,40,0.00,,,0.00,WeatherCatV1.20B785,2013-07-23 20:12:00,
2013-07-23 15:15:00,98.1,68.8,29.89,SE,125,3.0,13.0,39,0.00,,,0.00,WeatherCatV1.24B11,2013-07-23 20:15:00,
2013-07-23 15:17:00,97.8,69.3,29.89,South,178,3.0,8.0,40,0.00,,,0.00,WeatherCatV1.20B785,2013-07-23 20:17:00,
2013-07-23 15:20:00,98.1,68.8,29.88,SSE,152,3.0,9.0,39,0.00,,,0.00,WeatherCatV1.24B11,2013-07-23 20:20:00,
2013-07-23 15:22:00,98.0,68.8,29.89,SSW,211,3.0,5.0,39,0.00,,,0.00,WeatherCatV1.20B785,2013-07-23 20:22:00,
2013-07-23 15:25:00,98.0,68.8,29.88,SE,127,3.0,12.0,39,0.00,,,0.00,WeatherCatV1.24B11,2013-07-23 20:25:00,
2013-07-23 15:27:00,98.2,68.9,29.89,SE,134,3.0,13.0,39,0.00,,,0.00,WeatherCatV1.20B785,2013-07-23 20:27:00,
2013-07-23 15:30:00,97.9,69.4,29.88,ESE,120,3.0,5.0,40,0.00,,,0.00,WeatherCatV1.24B11,2013-07-23 20:30:00,
2013-07-23 15:32:00,98.0,68.8,29.88,South,182,9.0,9.0,39,0.00,,,0.00,WeatherCatV1.20B785,2013-07-23 20:32:00,
2013-07-23 15:35:00,97.7,69.2,29.88,ESE,113,3.0,5.0,40,0.00,,,0.00,WeatherCatV1.24B11,2013-07-23 20:35:00,
2013-07-23 15:37:00,98.0,68.8,29.88,East,82,0.0,12.0,39,0.00,,,0.00,WeatherCatV1.20B785,2013-07-23 20:37:00,
2013-07-23 15:40:00,97.8,68.6,29.88,SE,132,4.0,12.0,39,0.00,,,0.00,WeatherCatV1.24B11,2013-07-23 20:40:00,
2013-07-23 15:42:00,97.9,68.7,29.88,ESE,113,3.0,5.0,39,0.00,,,0.00,WeatherCatV1.20B785,2013-07-23 20:42:00,
2013-07-23 15:45:00,97.9,67.9,29.88,SE,134,4.0,10.0,38,0.00,,,0.00,WeatherCatV1.24B11,2013-07-23 20:45:00,
2013-07-23 15:47:00,97.7,69.2,29.88,ENE,75,3.0,6.0,40,0.00,,,0.00,WeatherCatV1.20B785,2013-07-23 20:47:00,
2013-07-23 15:50:00,97.9,67.9,29.88,SE,127,4.0,4.0,38,0.00,,,0.00,WeatherCatV1.24B11,2013-07-23 20:50:00,
2013-07-23 15:52:00,97.8,67.8,29.88,SSE,161,9.0,12.0,38,0.00,,,0.00,WeatherCatV1.20B785,2013-07-23 20:52:00,
2013-07-23 15:55:00,98.1,68.1,29.87,SE,143,4.0,7.0,38,0.00,,,0.00,WeatherCatV1.24B11,2013-07-23 20:55:00,
2013-07-23 15:57:00,97.9,67.9,29.88,SSE,150,4.0,13.0,38,0.00,,,0.00,WeatherCatV1.20B785,2013-07-23 20:57:00,
2013-07-23 16:00:00,98.3,67.5,29.87,SE,129,3.0,9.0,37,0.00,,,0.00,WeatherCatV1.24B11,2013-07-23 21:00:00,
2013-07-23 16:02:00,97.9,67.9,29.88,SSW,208,5.0,13.0,38,0.00,,,0.00,WeatherCatV1.20B785,2013-07-23 21:02:00,
2013-07-23 16:05:00,98.4,67.6,29.87,SE,140,3.0,11.0,37,0.00,,,0.00,WeatherCatV1.24B11,2013-07-23 21:05:00,
2013-07-23 16:07:00,98.1,68.1,29.87,ESE,110,4.0,7.0,38,0.00,,,0.00,WeatherCatV1.20B785,2013-07-23 21:07:00,
2013-07-23 16:10:00,98.8,68.7,29.87,SE,128,2.0,8.0,38,0.00,,,0.00,WeatherCatV1.24B11,2013-07-23 21:10:00,
2013-07-23 16:12:00,98.4,67.6,29.87,South,175,8.0,8.0,37,0.00,,,0.00,WeatherCatV1.20B785,2013-07-23 21:12:00,
2013-07-23 16:15:00,98.9,68.0,29.87,SE,124,3.0,16.0,37,0.00,,,0.00,WeatherCatV1.24B11,2013-07-23 21:15:00,
2013-07-23 16:17:00,98.5,67.7,29.87,SSE,155,4.0,6.0,37,0.00,,,0.00,WeatherCatV1.20B785,2013-07-23 21:17:00,
2013-07-23 16:20:00,98.5,67.7,29.86,ESE,112,4.0,4.0,37,0.00,,,0.00,WeatherCatV1.24B11,2013-07-23 21:20:00,
2013-07-23 16:22:00,98.9,68.0,29.86,SE,128,5.0,10.0,37,0.00,,,0.00,WeatherCatV1.20B785,2013-07-23 21:22:00,
2013-07-23 16:25:00,98.3,67.5,29.86,SE,140,4.0,8.0,37,0.00,,,0.00,WeatherCatV1.24B11,2013-07-23 21:25:00,
2013-07-23 16:27:00,98.8,67.9,29.86,ESE,113,4.0,16.0,37,0.00,,,0.00,WeatherCatV1.20B785,2013-07-23 21:27:00,
2013-07-23 16:30:00,98.4,68.4,29.86,SE,146,2.0,6.0,38,0.00,,,0.00,WeatherCatV1.24B11,2013-07-23 21:30:00,
2013-07-23 16:32:00,98.5,68.4,29.86,SE,128,7.0,7.0,38,0.00,,,0.00,WeatherCatV1.20B785,2013-07-23 21:32:00,
2013-07-23 16:35:00,99.0,67.3,29.86,SSE,157,2.0,6.0,36,0.00,,,0.00,WeatherCatV1.24B11,2013-07-23 21:35:00,
2013-07-23 16:37:00,98.3,68.3,29.86,ESE,103,3.0,3.0,38,0.00,,,0.00,WeatherCatV1.20B785,2013-07-23 21:37:00,
2013-07-23 16:40:00,99.7,67.9,29.86,SSE,162,2.0,9.0,36,0.00,,,0.00,WeatherCatV1.24B11,2013-07-23 21:40:00,
2013-07-23 16:42:00,98.6,67.8,29.86,South,169,4.0,5.0,37,0.00,,,0.00,WeatherCatV1.20B785,2013-07-23 21:42:00,
2013-07-23 16:45:00,99.3,67.6,29.86,South,176,3.0,3.0,36,0.00,,,0.00,WeatherCatV1.24B11,2013-07-23 21:45:00,
2013-07-23 16:47:00,99.3,67.6,29.86,South,169,0.0,2.0,36,0.00,,,0.00,WeatherCatV1.20B785,2013-07-23 21:47:00,
2013-07-23 16:50:00,99.3,67.6,29.86,SE,146,3.0,8.0,36,0.00,,,0.00,WeatherCatV1.24B11,2013-07-23 21:50:00,
2013-07-23 16:52:00,99.6,67.0,29.86,SW,222,8.0,10.0,35,0.00,,,0.00,WeatherCatV1.20B785,2013-07-23 21:52:00,
2013-07-23 16:55:00,99.2,68.3,29.86,SE,130,3.0,10.0,37,0.00,,,0.00,WeatherCatV1.24B11,2013-07-23 21:55:00,
2013-07-23 16:57:00,99.3,67.6,29.86,ESE,114,0.0,7.0,36,0.00,,,0.00,WeatherCatV1.20B785,2013-07-23 21:57:00,
2013-07-23 17:00:00,99.2,67.5,29.85,SE,135,3.0,11.0,36,0.00,,,0.00,WeatherCatV1.24B11,2013-07-23 22:00:00,
2013-07-23 17:02:00,99.3,67.6,29.86,SE,139,2.0,8.0,36,0.00,,,0.00,WeatherCatV1.20B785,2013-07-23 22:02:00,
2013-07-23 17:05:00,99.0,68.1,29.85,SE,130,3.0,3.0,37,0.00,,,0.00,WeatherCatV1.24B11,2013-07-23 22:05:00,
2013-07-23 17:07:00,99.2,67.5,29.86,SSE,165,0.0,6.0,36,0.00,,,0.00,WeatherCatV1.20B785,2013-07-23 22:07:00,
2013-07-23 17:10:00,99.4,67.7,29.85,SE,138,3.0,7.0,36,0.00,,,0.00,WeatherCatV1.24B11,2013-07-23 22:10:00,
2013-07-23 17:12:00,99.1,67.4,29.85,SE,138,1.0,11.0,36,0.00,,,0.00,WeatherCatV1.20B785,2013-07-23 22:12:00,
2013-07-23 17:15:00,99.5,67.8,29.85,SE,135,2.0,8.0,36,0.00,,,0.00,WeatherCatV1.24B11,2013-07-23 22:15:00,
2013-07-23 17:17:00,99.1,68.2,29.85,SE,128,1.0,3.0,37,0.00,,,0.00,WeatherCatV1.20B785,2013-07-23 22:17:00,
2013-07-23 17:20:00,99.1,67.4,29.85,SE,138,2.0,7.0,36,0.00,,,0.00,WeatherCatV1.24B11,2013-07-23 22:20:00,
2013-07-23 17:22:00,99.4,67.7,29.85,ESE,115,5.0,13.0,36,0.00,,,0.00,WeatherCatV1.20B785,2013-07-23 22:22:00,
2013-07-23 17:25:00,99.1,68.2,29.85,SE,146,2.0,4.0,37,0.00,,,0.00,WeatherCatV1.24B11,2013-07-23 22:25:00,
2013-07-23 17:27:00,99.5,67.7,29.85,South,178,1.0,8.0,36,0.00,,,0.00,WeatherCatV1.20B785,2013-07-23 22:27:00,
2013-07-23 17:30:00,99.2,68.3,29.85,SE,142,2.0,8.0,37,0.00,,,0.00,WeatherCatV1.24B11,2013-07-23 22:30:00,
2013-07-23 17:32:00,99.1,67.4,29.85,SSE,159,4.0,7.0,36,0.00,,,0.00,WeatherCatV1.20B785,2013-07-23 22:32:00,
2013-07-23 17:35:00,99.3,68.4,29.84,SSE,148,2.0,4.0,37,0.00,,,0.00,WeatherCatV1.24B11,2013-07-23 22:35:00,
2013-07-23 17:37:00,99.1,68.2,29.84,ESE,120,7.0,7.0,37,0.00,,,0.00,WeatherCatV1.20B785,2013-07-23 22:37:00,
2013-07-23 17:40:00,99.1,68.2,29.84,SSE,150,2.0,2.0,37,0.00,,,0.00,WeatherCatV1.24B11,2013-07-23 22:40:00,
2013-07-23 17:42:00,99.2,68.3,29.85,ESE,107,0.0,8.0,37,0.00,,,0.00,WeatherCatV1.20B785,2013-07-23 22:42:00,
2013-07-23 17:45:00,99.0,68.1,29.84,SSE,154,2.0,3.0,37,0.00,,,0.00,WeatherCatV1.24B11,2013-07-23 22:45:00,
2013-07-23 17:47:00,99.4,67.7,29.84,SE,142,0.0,9.0,36,0.00,,,0.00,WeatherCatV1.20B785,2013-07-23 22:47:00,
2013-07-23 17:50:00,98.9,68.8,29.84,SE,140,2.0,4.0,38,0.00,,,0.00,WeatherCatV1.24B11,2013-07-23 22:50:00,
2013-07-23 17:52:00,99.1,68.2,29.84,SSW,198,2.0,11.0,37,0.00,,,0.00,WeatherCatV1.20B785,2013-07-23 22:52:00,
2013-07-23 17:55:00,99.3,68.4,29.84,SE,145,1.0,10.0,37,0.00,,,0.00,WeatherCatV1.24B11,2013-07-23 22:55:00,
2013-07-23 17:57:00,99.0,68.9,29.84,ESE,111,5.0,8.0,38,0.00,,,0.00,WeatherCatV1.20B785,2013-07-23 22:57:00,
2013-07-23 18:00:00,99.3,69.2,29.84,SSE,163,1.0,3.0,38,0.00,,,0.00,WeatherCatV1.24B11,2013-07-23 23:00:00,
2013-07-23 18:02:00,99.0,68.9,29.84,ESE,123,0.0,2.0,38,0.00,,,0.00,WeatherCatV1.20B785,2013-07-23 23:02:00,
2013-07-23 18:05:00,99.1,69.7,29.84,SE,128,2.0,2.0,39,0.00,,,0.00,WeatherCatV1.24B11,2013-07-23 23:05:00,
2013-07-23 18:07:00,99.3,68.4,29.84,South,187,1.0,10.0,37,0.00,,,0.00,WeatherCatV1.20B785,2013-07-23 23:07:00,
2013-07-23 18:10:00,98.8,69.5,29.83,ESE,122,2.0,2.0,39,0.00,,,0.00,WeatherCatV1.24B11,2013-07-23 23:10:00,
2013-07-23 18:12:00,99.3,69.2,29.84,SE,134,4.0,8.0,38,0.00,,,0.00,WeatherCatV1.20B785,2013-07-23 23:12:00,
2013-07-23 18:15:00,98.7,68.6,29.83,SE,126,2.0,6.0,38,0.00,,,0.00,WeatherCatV1.24B11,2013-07-23 23:15:00,
2013-07-23 18:17:00,99.1,69.7,29.84,East,92,5.0,5.0,39,0.00,,,0.00,WeatherCatV1.20B785,2013-07-23 23:17:00,
2013-07-23 18:20:00,98.8,67.1,29.83,SE,142,2.0,4.0,36,0.00,,,0.00,WeatherCatV1.24B11,2013-07-23 23:20:00,
2013-07-23 18:22:00,98.8,69.5,29.83,ESE,109,2.0,7.0,39,0.00,,,0.00,WeatherCatV1.20B785,2013-07-23 23:22:00,
2013-07-23 18:25:00,98.9,67.2,29.83,SSE,167,1.0,3.0,36,0.00,,,0.00,WeatherCatV1.24B11,2013-07-23 23:25:00,
2013-07-23 18:27:00,98.7,67.0,29.84,SSE,168,0.0,8.0,36,0.00,,,0.00,WeatherCatV1.20B785,2013-07-23 23:27:00,
2013-07-23 18:30:00,98.7,67.8,29.83,SSE,158,1.0,5.0,37,0.00,,,0.00,WeatherCatV1.24B11,2013-07-23 23:30:00,
2013-07-23 18:32:00,98.8,67.1,29.84,SSE,168,0.0,5.0,36,0.00,,,0.00,WeatherCatV1.20B785,2013-07-23 23:32:00,
2013-07-23 18:35:00,98.8,67.9,29.83,SSE,154,1.0,1.0,37,0.00,,,0.00,WeatherCatV1.24B11,2013-07-23 23:35:00,
2013-07-23 18:37:00,98.8,67.1,29.83,East,91,3.0,6.0,36,0.00,,,0.00,WeatherCatV1.20B785,2013-07-23 23:37:00,
2013-07-23 18:40:00,98.5,67.7,29.83,SSE,162,2.0,2.0,37,0.00,,,0.00,WeatherCatV1.24B11,2013-07-23 23:40:00,
2013-07-23 18:42:00,98.7,67.8,29.83,SSE,159,0.0,5.0,37,0.00,,,0.00,WeatherCatV1.20B785,2013-07-23 23:42:00,
2013-07-23 18:45:00,98.3,69.0,29.83,SSE,148,2.0,3.0,39,0.00,,,0.00,WeatherCatV1.24B11,2013-07-23 23:45:00,
2013-07-23 18:47:00,98.8,67.9,29.83,SSE,156,3.0,7.0,37,0.00,,,0.00,WeatherCatV1.20B785,2013-07-23 23:47:00,
2013-07-23 18:50:00,97.6,71.3,29.83,ESE,118,2.0,9.0,43,0.00,,,0.00,WeatherCatV1.24B11,2013-07-23 23:50:00,
2013-07-23 18:52:00,98.5,67.7,29.83,East,87,0.0,1.0,37,0.00,,,0.00,WeatherCatV1.20B785,2013-07-23 23:52:00,
2013-07-23 18:55:00,96.7,71.8,29.83,ESE,107,3.0,6.0,45,0.00,,,0.00,WeatherCatV1.24B11,2013-07-23 23:55:00,
2013-07-23 18:57:00,98.3,69.8,29.83,SE,133,4.0,5.0,40,0.00,,,0.00,WeatherCatV1.20B785,2013-07-23 23:57:00,
2013-07-23 19:00:00,96.5,71.6,29.83,ESE,116,2.0,5.0,45,0.00,,,0.00,WeatherCatV1.24B11,2013-07-24 00:00:00,
2013-07-23 19:02:00,97.4,71.8,29.83,ESE,103,0.0,11.0,44,0.00,,,0.00,WeatherCatV1.20B785,2013-07-24 00:02:00,
2013-07-23 19:05:00,95.9,71.7,29.83,ESE,105,2.0,13.0,46,0.00,,,0.00,WeatherCatV1.24B11,2013-07-24 00:05:00,
2013-07-23 19:07:00,96.6,71.7,29.83,ESE,119,3.0,3.0,45,0.00,,,0.00,WeatherCatV1.20B785,2013-07-24 00:07:00,
2013-07-23 19:10:00,95.6,72.1,29.83,ESE,110,2.0,3.0,47,0.00,,,0.00,WeatherCatV1.24B11,2013-07-24 00:10:00,
2013-07-23 19:12:00,96.5,71.6,29.83,East,95,6.0,7.0,45,0.00,,,0.00,WeatherCatV1.20B785,2013-07-24 00:12:00,
2013-07-23 19:15:00,95.2,72.4,29.83,ESE,111,3.0,4.0,48,0.00,,,0.00,WeatherCatV1.24B11,2013-07-24 00:15:00,
2013-07-23 19:17:00,95.8,71.6,29.83,ESE,103,1.0,13.0,46,0.00,,,0.00,WeatherCatV1.20B785,2013-07-24 00:17:00,
2013-07-23 19:20:00,94.9,72.7,29.83,ESE,107,2.0,5.0,49,0.00,,,0.00,WeatherCatV1.24B11,2013-07-24 00:20:00,
2013-07-23 19:22:00,95.5,72.0,29.83,East,96,0.0,6.0,47,0.00,,,0.00,WeatherCatV1.20B785,2013-07-24 00:22:00,
2013-07-23 19:25:00,94.6,72.4,29.83,ESE,114,2.0,8.0,49,0.00,,,0.00,WeatherCatV1.24B11,2013-07-24 00:25:00,
2013-07-23 19:27:00,95.1,72.3,29.83,ESE,110,1.0,7.0,48,0.00,,,0.00,WeatherCatV1.20B785,2013-07-24 00:27:00,
2013-07-23 19:30:00,94.3,72.8,29.83,ESE,112,2.0,3.0,50,0.00,,,0.00,WeatherCatV1.24B11,2013-07-24 00:30:00,
2013-07-23 19:32:00,94.8,72.6,29.83,ESE,114,0.0,9.0,49,0.00,,,0.00,WeatherCatV1.20B785,2013-07-24 00:32:00,
2013-07-23 19:35:00,94.0,73.1,29.83,ESE,120,2.0,7.0,51,0.00,,,0.00,WeatherCatV1.24B11,2013-07-24 00:35:00,
2013-07-23 19:37:00,94.5,72.3,29.83,ESE,119,1.0,8.0,49,0.00,,,0.00,WeatherCatV1.20B785,2013-07-24 00:37:00,
2013-07-23 19:40:00,93.6,73.3,29.83,ESE,106,2.0,10.0,52,0.00,,,0.00,WeatherCatV1.24B11,2013-07-24 00:40:00,
2013-07-23 19:42:00,94.2,72.7,29.83,SE,134,4.0,5.0,50,0.00,,,0.00,WeatherCatV1.20B785,2013-07-24 00:42:00,
2013-07-23 19:45:00,93.2,73.5,29.83,ESE,109,2.0,2.0,53,0.00,,,0.00,WeatherCatV1.24B11,2013-07-24 00:45:00,
2013-07-23 19:47:00,93.9,73.0,29.83,SE,132,3.0,8.0,51,0.00,,,0.00,WeatherCatV1.20B785,2013-07-24 00:47:00,
2013-07-23 19:50:00,92.9,73.8,29.83,ESE,119,2.0,5.0,54,0.00,,,0.00,WeatherCatV1.24B11,2013-07-24 00:50:00,
2013-07-23 19:52:00,93.4,73.1,29.83,East,88,2.0,5.0,52,0.00,,,0.00,WeatherCatV1.20B785,2013-07-24 00:52:00,
2013-07-23 19:55:00,92.5,73.4,29.83,ESE,121,1.0,1.0,54,0.00,,,0.00,WeatherCatV1.24B11,2013-07-24 00:55:00,
2013-07-23 19:57:00,93.0,73.3,29.83,ESE,120,0.0,5.0,53,0.00,,,0.00,WeatherCatV1.20B785,2013-07-24 00:57:00,
2013-07-23 20:00:00,92.0,74.0,29.83,SE,128,1.0,3.0,56,0.00,,,0.00,WeatherCatV1.24B11,2013-07-24 01:00:00,
2013-07-23 20:02:00,92.7,73.6,29.83,ESE,113,0.0,5.0,54,0.00,,,0.00,WeatherCatV1.20B785,2013-07-24 01:02:00,
2013-07-23 20:05:00,91.7,74.8,29.83,SE,129,1.0,4.0,58,0.00,,,0.00,WeatherCatV1.24B11,2013-07-24 01:05:00,
2013-07-23 20:07:00,92.4,73.8,29.83,SE,132,0.0,6.0,55,0.00,,,0.00,WeatherCatV1.20B785,2013-07-24 01:07:00,
2013-07-23 20:10:00,91.1,74.7,29.83,ESE,118,1.0,6.0,59,0.00,,,0.00,WeatherCatV1.24B11,2013-07-24 01:10:00,
2013-07-23 20:12:00,92.0,74.0,29.83,East,95,0.0,3.0,56,0.00,,,0.00,WeatherCatV1.20B785,2013-07-24 01:12:00,
2013-07-23 20:15:00,90.7,74.9,29.83,ESE,121,2.0,3.0,60,0.00,,,0.00,WeatherCatV1.24B11,2013-07-24 01:15:00,
2013-07-23 20:17:00,91.5,74.6,29.83,ESE,105,0.0,8.0,58,0.00,,,0.00,WeatherCatV1.20B785,2013-07-24 01:17:00,
2013-07-23 20:20:00,90.2,74.9,29.83,ESE,122,1.0,3.0,61,0.00,,,0.00,WeatherCatV1.24B11,2013-07-24 01:20:00,
2013-07-23 20:22:00,91.0,74.6,29.83,ESE,119,3.0,6.0,59,0.00,,,0.00,WeatherCatV1.20B785,2013-07-24 01:22:00,
2013-07-23 20:25:00,89.9,75.1,29.82,ESE,121,1.0,2.0,62,0.00,,,0.00,WeatherCatV1.24B11,2013-07-24 01:25:00,
2013-07-23 20:27:00,90.6,74.8,29.83,ESE,114,1.0,5.0,60,0.00,,,0.00,WeatherCatV1.20B785,2013-07-24 01:27:00,
2013-07-23 20:30:00,89.5,75.2,29.83,SE,130,1.0,4.0,63,0.00,,,0.00,WeatherCatV1.24B11,2013-07-24 01:30:00,
2013-07-23 20:32:00,90.2,74.9,29.83,ESE,117,0.0,3.0,61,0.00,,,0.00,WeatherCatV1.20B785,2013-07-24 01:32:00,
2013-07-23 20:35:00,89.2,75.4,29.83,SE,129,1.0,3.0,64,0.00,,,0.00,WeatherCatV1.24B11,2013-07-24 01:35:00,
2013-07-23 20:37:00,89.8,75.0,29.83,SE,137,1.0,4.0,62,0.00,,,0.00,WeatherCatV1.20B785,2013-07-24 01:37:00,
2013-07-23 20:40:00,88.7,75.8,29.83,ESE,108,1.0,3.0,66,0.00,,,0.00,WeatherCatV1.24B11,2013-07-24 01:40:00,
2013-07-23 20:42:00,89.5,75.2,29.83,ESE,117,0.0,4.0,63,0.00,,,0.00,WeatherCatV1.20B785,2013-07-24 01:42:00,
2013-07-23 20:45:00,88.3,75.9,29.83,East,101,1.0,8.0,67,0.00,,,0.00,WeatherCatV1.24B11,2013-07-24 01:45:00,
2013-07-23 20:47:00,89.2,75.4,29.83,ENE,68,0.0,5.0,64,0.00,,,0.00,WeatherCatV1.20B785,2013-07-24 01:47:00,
2013-07-23 20:50:00,87.9,75.5,29.83,East,92,1.0,3.0,67,0.00,,,0.00,WeatherCatV1.24B11,2013-07-24 01:50:00,
2013-07-23 20:52:00,88.7,75.8,29.83,East,101,1.0,3.0,66,0.00,,,0.00,WeatherCatV1.20B785,2013-07-24 01:52:00,
2013-07-23 20:55:00,87.4,75.5,29.83,ESE,112,1.0,3.0,68,0.00,,,0.00,WeatherCatV1.24B11,2013-07-24 01:55:00,
2013-07-23 20:57:00,88.2,75.8,29.83,East,91,0.0,8.0,67,0.00,,,0.00,WeatherCatV1.20B785,2013-07-24 01:57:00,
2013-07-23 21:00:00,87.1,75.7,29.83,ESE,111,1.0,7.0,69,0.00,,,0.00,WeatherCatV1.24B11,2013-07-24 02:00:00,
2013-07-23 21:02:00,87.7,75.8,29.83,ESE,109,0.0,5.0,68,0.00,,,0.00,WeatherCatV1.20B785,2013-07-24 02:02:00,
2013-07-23 21:05:00,86.9,75.9,29.83,ESE,116,1.0,4.0,70,0.00,,,0.00,WeatherCatV1.24B11,2013-07-24 02:05:00,
2013-07-23 21:07:00,87.3,75.8,29.84,ESE,118,0.0,1.0,69,0.00,,,0.00,WeatherCatV1.20B785,2013-07-24 02:07:00,
2013-07-23 21:10:00,86.6,75.6,29.84,ESE,110,1.0,5.0,70,0.00,,,0.00,WeatherCatV1.24B11,2013-07-24 02:10:00,
2013-07-23 21:12:00,87.1,75.7,29.83,ESE,103,3.0,4.0,69,0.00,,,0.00,WeatherCatV1.20B785,2013-07-24 02:12:00,
2013-07-23 21:15:00,86.3,75.8,29.84,SE,129,1.0,4.0,71,0.00,,,0.00,WeatherCatV1.24B11,2013-07-24 02:15:00,
2013-07-23 21:17:00,86.8,75.8,29.84,ESE,119,0.0,2.0,70,0.00,,,0.00,WeatherCatV1.20B785,2013-07-24 02:17:00,
2013-07-23 21:20:00,86.0,75.9,29.84,ESE,116,2.0,4.0,72,0.00,,,0.00,WeatherCatV1.24B11,2013-07-24 02:20:00,
2013-07-23 21:22:00,86.5,75.9,29.84,SE,127,3.0,7.0,71,0.00,,,0.00,WeatherCatV1.20B785,2013-07-24 02:22:00,
2013-07-23 21:25:00,85.7,76.0,29.84,ESE,109,2.0,5.0,73,0.00,,,0.00,WeatherCatV1.24B11,2013-07-24 02:25:00,
2013-07-23 21:27:00,86.1,76.0,29.84,ESE,109,0.0,10.0,72,0.00,,,0.00,WeatherCatV1.20B785,2013-07-24 02:27:00,
2013-07-23 21:30:00,85.4,75.7,29.84,ESE,111,1.0,5.0,73,0.00,,,0.00,WeatherCatV1.24B11,2013-07-24 02:30:00,
2013-07-23 21:32:00,85.9,75.8,29.84,ESE,103,1.0,5.0,72,0.00,,,0.00,WeatherCatV1.20B785,2013-07-24 02:32:00,
2013-07-23 21:35:00,85.2,76.0,29.85,ESE,103,1.0,7.0,74,0.00,,,0.00,WeatherCatV1.24B11,2013-07-24 02:35:00,
2013-07-23 21:37:00,85.6,75.5,29.85,East,82,10.0,10.0,72,0.00,,,0.00,WeatherCatV1.20B785,2013-07-24 02:37:00,
2013-07-23 21:40:00,84.9,75.7,29.85,ESE,118,1.0,0.0,74,0.00,,,0.00,WeatherCatV1.24B11,2013-07-24 02:40:00,
2013-07-23 21:42:00,85.4,75.7,29.85,East,96,0.0,2.0,73,0.00,,,0.00,WeatherCatV1.20B785,2013-07-24 02:42:00,
2013-07-23 21:45:00,84.6,75.8,29.85,SE,126,1.0,5.0,75,0.00,,,0.00,WeatherCatV1.24B11,2013-07-24 02:45:00,
2013-07-23 21:47:00,85.1,75.8,29.85,SE,130,0.0,3.0,74,0.00,,,0.00,WeatherCatV1.20B785,2013-07-24 02:47:00,
2013-07-23 21:50:00,84.3,75.5,29.85,ESE,111,2.0,5.0,75,0.00,,,0.00,WeatherCatV1.24B11,2013-07-24 02:50:00,
2013-07-23 21:52:00,84.9,75.7,29.85,SE,140,2.0,2.0,74,0.00,,,0.00,WeatherCatV1.20B785,2013-07-24 02:52:00,
2013-07-23 21:55:00,84.1,75.7,29.86,East,97,2.0,3.0,76,0.00,,,0.00,WeatherCatV1.24B11,2013-07-24 02:55:00,
2013-07-23 21:57:00,84.6,75.8,29.85,ESE,103,2.0,5.0,75,0.00,,,0.00,WeatherCatV1.20B785,2013-07-24 02:57:00,
2013-07-23 22:00:00,83.9,75.5,29.86,East,97,2.0,5.0,76,0.00,,,0.00,WeatherCatV1.24B11,2013-07-24 03:00:00,
2013-07-23 22:02:00,84.3,75.5,29.86,SE,142,1.0,9.0,75,0.00,,,0.00,WeatherCatV1.20B785,2013-07-24 03:02:00,
2013-07-23 22:05:00,83.7,75.7,29.86,East,96,1.0,1.0,77,0.00,,,0.00,WeatherCatV1.24B11,2013-07-24 03:05:00,
2013-07-23 22:07:00,84.1,75.7,29.86,East,96,0.0,8.0,76,0.00,,,0.00,WeatherCatV1.20B785,2013-07-24 03:07:00,
2013-07-23 22:10:00,83.5,75.5,29.86,ESE,105,1.0,5.0,77,0.00,,,0.00,WeatherCatV1.24B11,2013-07-24 03:10:00,
2013-07-23 22:12:00,83.9,75.5,29.86,East,83,0.0,5.0,76,0.00,,,0.00,WeatherCatV1.20B785,2013-07-24 03:12:00,
2013-07-23 22:15:00,83.3,75.7,29.87,ESE,118,1.0,5.0,78,0.00,,,0.00,WeatherCatV1.24B11,2013-07-24 03:15:00,
2013-07-23 22:17:00,83.7,75.7,29.86,ESE,107,1.0,5.0,77,0.00,,,0.00,WeatherCatV1.20B785,2013-07-24 03:17:00,
2013-07-23 22:20:00,83.0,75.8,29.87,ESE,114,2.0,7.0,79,0.00,,,0.00,WeatherCatV1.24B11,2013-07-24 03:20:00,
2013-07-23 22:22:00,83.5,75.5,29.86,East,92,1.0,5.0,77,0.00,,,0.00,WeatherCatV1.20B785,2013-07-24 03:22:00,
2013-07-23 22:25:00,82.8,75.6,29.87,ESE,113,3.0,4.0,79,0.00,,,0.00,WeatherCatV1.24B11,2013-07-24 03:25:00,
2013-07-23 22:27:00,83.2,75.6,29.87,East,96,0.0,5.0,78,0.00,,,0.00,WeatherCatV1.20B785,2013-07-24 03:27:00,
2013-07-23 22:30:00,82.6,75.4,29.87,ESE,111,3.0,3.0,79,0.00,,,0.00,WeatherCatV1.24B11,2013-07-24 03:30:00,
2013-07-23 22:32:00,83.0,75.8,29.87,SE,138,6.0,8.0,79,0.00,,,0.00,WeatherCatV1.20B785,2013-07-24 03:32:00,
2013-07-23 22:35:00,82.4,75.6,29.87,SE,129,2.0,5.0,80,0.00,,,0.00,WeatherCatV1.24B11,2013-07-24 03:35:00,
2013-07-23 22:37:00,82.7,75.5,29.87,ESE,107,3.0,4.0,79,0.00,,,0.00,WeatherCatV1.20B785,2013-07-24 03:37:00,
2013-07-23 22:40:00,82.2,75.4,29.87,SE,126,1.0,2.0,80,0.00,,,0.00,WeatherCatV1.24B11,2013-07-24 03:40:00,
2013-07-23 22:42:00,82.5,75.3,29.87,East,101,2.0,6.0,79,0.00,,,0.00,WeatherCatV1.20B785,2013-07-24 03:42:00,
2013-07-23 22:45:00,82.0,75.2,29.87,ESE,116,2.0,9.0,80,0.00,,,0.00,WeatherCatV1.24B11,2013-07-24 03:45:00,
2013-07-23 22:47:00,82.3,75.5,29.87,ESE,105,0.0,5.0,80,0.00,,,0.00,WeatherCatV1.20B785,2013-07-24 03:47:00,
2013-07-23 22:50:00,81.8,75.4,29.87,ESE,118,2.0,5.0,81,0.00,,,0.00,WeatherCatV1.24B11,2013-07-24 03:50:00,
2013-07-23 22:52:00,82.1,75.3,29.87,SE,130,1.0,4.0,80,0.00,,,0.00,WeatherCatV1.20B785,2013-07-24 03:52:00,
2013-07-23 22:55:00,81.6,75.2,29.87,ESE,123,2.0,4.0,81,0.00,,,0.00,WeatherCatV1.24B11,2013-07-24 03:55:00,
2013-07-23 22:57:00,81.9,75.5,29.87,ESE,115,3.0,5.0,81,0.00,,,0.00,WeatherCatV1.20B785,2013-07-24 03:57:00,
2013-07-23 23:00:00,81.4,75.0,29.87,SSE,147,1.0,0.0,81,0.00,,,0.00,WeatherCatV1.24B11,2013-07-24 04:00:00,
2013-07-23 23:01:00,81.8,75.4,29.87,East,90,0.0,8.0,81,0.00,,,0.00,WeatherCatV1.20B785,2013-07-24 04:01:00,
2013-07-23 23:05:00,81.2,75.2,29.88,ESE,114,1.0,5.0,82,0.00,,,0.00,WeatherCatV1.24B11,2013-07-24 04:05:00,
2013-07-23 23:06:00,81.6,75.2,29.87,SSE,153,1.0,9.0,81,0.00,,,0.00,WeatherCatV1.20B785,2013-07-24 04:06:00,
2013-07-23 23:10:00,81.1,75.1,29.88,ESE,122,2.0,0.0,82,0.00,,,0.00,WeatherCatV1.24B11,2013-07-24 04:10:00,
2013-07-23 23:11:00,81.4,75.0,29.87,ESE,112,0.0,5.0,81,0.00,,,0.00,WeatherCatV1.20B785,2013-07-24 04:11:00,
2013-07-23 23:15:00,80.9,74.9,29.88,ESE,118,2.0,2.0,82,0.00,,,0.00,WeatherCatV1.24B11,2013-07-24 04:15:00,
2013-07-23 23:16:00,81.2,75.2,29.88,SE,132,3.0,7.0,82,0.00,,,0.00,WeatherCatV1.20B785,2013-07-24 04:16:00,
2013-07-23 23:20:00,80.7,74.7,29.88,SE,128,1.0,5.0,82,0.00,,,0.00,WeatherCatV1.24B11,2013-07-24 04:20:00,
2013-07-23 23:21:00,81.1,75.1,29.88,SE,140,2.0,6.0,82,0.00,,,0.00,WeatherCatV1.20B785,2013-07-24 04:21:00,
2013-07-23 23:25:00,80.5,74.8,29.88,ESE,116,1.0,1.0,83,0.00,,,0.00,WeatherCatV1.24B11,2013-07-24 04:25:00,
2013-07-23 23:26:00,80.9,74.9,29.88,ESE,121,0.0,1.0,82,0.00,,,0.00,WeatherCatV1.20B785,2013-07-24 04:26:00,
2013-07-23 23:30:00,80.4,74.8,29.87,ESE,122,1.0,3.0,83,0.00,,,0.00,WeatherCatV1.24B11,2013-07-24 04:30:00,
2013-07-23 23:31:00,80.7,75.0,29.88,SE,125,0.0,5.0,83,0.00,,,0.00,WeatherCatV1.20B785,2013-07-24 04:31:00,
2013-07-23 23:35:00,80.2,74.6,29.87,SE,124,1.0,5.0,83,0.00,,,0.00,WeatherCatV1.24B11,2013-07-24 04:35:00,
2013-07-23 23:36:00,80.5,74.8,29.88,ESE,116,0.0,3.0,83,0.00,,,0.00,WeatherCatV1.20B785,2013-07-24 04:36:00,
2013-07-23 23:40:00,80.1,74.8,29.87,ESE,122,1.0,4.0,84,0.00,,,0.00,WeatherCatV1.24B11,2013-07-24 04:40:00,
2013-07-23 23:41:00,80.4,74.8,29.87,SE,141,0.0,4.0,83,0.00,,,0.00,WeatherCatV1.20B785,2013-07-24 04:41:00,
2013-07-23 23:45:00,80.0,74.7,29.87,SE,130,1.0,4.0,84,0.00,,,0.00,WeatherCatV1.24B11,2013-07-24 04:45:00,
2013-07-23 23:46:00,80.3,74.7,29.87,ESE,105,5.0,5.0,83,0.00,,,0.00,WeatherCatV1.20B785,2013-07-24 04:46:00,
2013-07-23 23:50:00,79.8,74.5,29.88,SE,128,2.0,7.0,84,0.00,,,0.00,WeatherCatV1.24B11,2013-07-24 04:50:00,
2013-07-23 23:51:00,80.1,74.8,29.87,ESE,121,0.0,4.0,84,0.00,,,0.00,WeatherCatV1.20B785,2013-07-24 04:51:00,
2013-07-23 23:55:00,79.6,74.3,29.88,SE,131,2.0,5.0,84,0.00,,,0.00,WeatherCatV1.24B11,2013-07-24 04:55:00,
2013-07-23 23:56:00,80.0,74.7,29.87,SE,130,0.0,4.0,84,0.00,,,0.00,WeatherCatV1.20B785,2013-07-24 04:56:00,